GFSWCAN_sfc_thetae_069.txt.gz
Theta_e
312 312 311 311 311 311 311 311 311 311 312 313 313 313 313 314 314 315 315 319 311 308 308 308 307 302 303 302 294 300 298 298 295 290 290 290 288 289 287 290 290 290 288 288 290 286 284 302 300 293 301 301 301 310
312 311 311 311 311 311 311 310 311 311 312 313 313 313 314 314 314 313 314 319 317 310 310 314 312 311 309 307 304 302 299 298 299 291 291 290 288 290 288 286 293 287 292 290 291 291 301 302 301 304 306 299 299 304
311 310 311 311 311 310 310 310 310 311 312 312 312 313 313 314 314 313 316 316 314 311 308 308 308 312 314 312 313 299 303 304 301 302 296 292 287 289 287 289 288 291 292 289 292 294 294 297 301 303 304 301 302 306
310 310 311 311 310 310 310 310 310 311 311 311 312 312 313 314 315 313 312 320 315 312 306 305 315 310 313 313 311 311 307 309 307 303 298 294 290 293 289 289 286 290 292 288 289 292 293 296 299 300 300 302 303 308
310 310 310 310 310 310 310 309 310 310 310 311 312 313 313 313 314 315 317 319 320 311 306 307 312 313 313 312 309 310 307 305 302 300 297 295 296 293 294 293 288 295 290 287 287 293 291 294 298 302 305 305 306 307
309 309 310 310 310 310 310 309 310 310 310 311 312 313 314 313 312 312 310 318 321 318 307 304 316 311 311 310 307 304 308 306 305 300 299 301 301 297 291 287 295 298 298 297 293 297 296 296 299 303 303 305 305 306
309 309 310 310 310 310 310 309 309 310 309 310 312 312 314 313 316 310 311 313 312 317 307 304 308 313 313 309 309 304 308 306 306 303 303 302 300 301 297 285 297 300 300 299 300 298 295 295 294 300 302 303 304 304
309 309 310 310 310 310 309 309 309 309 309 310 312 311 312 312 311 312 318 309 311 310 310 303 304 308 312 307 303 309 303 305 304 305 304 300 300 300 289 298 301 301 301 300 300 300 297 298 298 298 300 301 300 300
309 309 309 310 310 309 308 309 309 309 309 311 312 312 315 313 310 314 311 311 317 310 303 304 302 299 313 308 309 305 305 301 306 302 301 302 293 288 297 299 300 301 300 299 301 299 299 298 296 297 298 298 297 298
309 309 309 309 310 309 308 308 309 309 309 311 313 314 309 314 313 312 312 308 306 307 309 303 310 305 311 311 305 303 304 299 296 300 302 300 293 301 301 302 304 304 303 302 298 298 298 297 297 297 297 299 298 298
309 309 309 309 310 309 308 308 309 310 310 316 317 314 317 312 314 309 309 308 310 307 308 307 308 305 313 306 306 308 305 302 294 298 298 299 296 299 302 303 304 306 305 303 303 302 301 300 300 299 298 300 300 299
308 308 309 309 309 309 308 308 309 313 322 316 317 319 319 311 310 308 305 307 305 302 309 306 307 308 310 315 307 308 301 300 294 304 298 289 299 303 303 302 304 305 304 304 304 303 303 302 302 301 300 300 301 299
308 308 308 309 309 309 308 308 308 310 311 322 318 314 314 313 299 299 297 302 301 306 307 307 304 310 312 311 306 305 298 296 305 296 290 296 303 304 304 304 303 304 305 305 304 304 305 304 304 303 301 301 303 302
308 308 308 309 309 309 309 308 309 310 315 316 313 298 306 302 304 305 305 305 308 308 307 306 305 306 310 306 305 296 301 301 293 291 290 299 304 304 304 306 304 303 303 305 304 305 303 304 302 304 303 303 302 302
308 308 308 311 310 309 308 308 309 316 319 313 312 299 305 308 309 310 311 311 312 311 308 305 304 305 304 300 300 297 294 292 293 291 296 303 306 305 304 304 304 303 303 303 303 304 305 303 302 302 304 304 304 303
308 307 315 310 311 311 310 309 313 322 320 315 312 308 309 307 308 309 311 309 313 310 310 306 297 294 294 296 293 292 291 290 295 296 300 304 306 306 305 305 304 304 305 304 304 304 304 305 302 302 304 304 304 303
306 323 309 310 311 310 311 319 321 317 316 312 309 312 311 311 311 312 312 311 313 307 297 294 289 291 299 296 292 296 295 298 299 299 303 307 305 305 305 306 305 305 306 305 304 304 303 304 304 303 302 303 304 305
317 316 309 309 311 315 323 320 319 316 310 312 309 311 313 315 314 314 314 313 310 308 307 298 299 297 294 292 294 298 300 303 304 303 305 307 308 307 305 305 305 305 306 305 305 305 304 303 303 302 303 304 303 304
312 313 310 308 312 319 320 321 321 311 312 314 314 315 314 314 316 317 314 314 316 315 306 303 300 298 298 300 301 301 302 302 302 304 304 308 308 307 306 306 306 305 305 306 305 303 302 304 302 302 302 302 301 302
308 308 310 311 310 320 316 319 326 316 312 314 317 314 314 314 317 315 315 314 311 306 304 302 302 303 304 308 306 305 307 305 305 302 302 304 305 306 306 304 303 306 304 305 304 295 303 303 302 302 301 302 301 300
309 319 312 316 321 322 319 318 316 318 315 313 317 315 311 314 312 311 309 312 307 304 303 307 307 311 313 311 312 313 313 311 306 304 306 302 305 304 304 303 304 303 302 301 302 304 298 301 302 301 304 301 302 303
324 314 326 323 322 323 320 323 318 319 317 315 316 316 312 309 309 310 311 307 305 307 309 309 310 311 312 311 313 315 315 314 313 310 300 301 302 302 302 303 302 301 303 302 301 301 301 302 301 302 303 302 302 302
313 321 325 323 318 313 310 323 314 316 311 312 315 310 310 311 312 317 309 308 308 312 312 312 314 314 313 314 313 312 313 311 312 311 307 304 304 303 303 303 303 300 300 300 301 302 301 296 299 302 302 304 303 302
311 321 316 317 316 308 318 314 317 314 315 311 310 306 308 309 314 310 303 306 310 311 310 313 311 308 309 312 306 306 306 307 306 306 305 303 304 301 303 302 301 302 302 302 302 301 301 300 299 302 301 301 301 302
307 305 308 296 315 311 309 309 310 311 306 309 306 307 309 314 306 304 301 304 307 307 307 308 308 308 305 304 305 306 308 305 303 302 302 302 300 301 301 302 302 302 304 299 302 301 299 298 301 301 301 299 299 299
296 308 302 309 311 310 309 305 307 307 309 306 308 314 315 309 301 299 304 308 307 306 305 305 304 303 303 304 302 302 303 305 306 301 302 301 300 300 299 301 299 299 302 301 300 299 299 300 300 299 299 299 295 299
298 306 312 318 317 317 314 316 316 312 306 306 308 309 308 299 299 305 311 312 308 306 307 305 304 302 301 302 303 304 304 304 303 302 303 302 301 301 300 298 297 299 302 301 302 301 300 300 299 299 300 299 300 299
310 311 308 312 313 315 310 312 308 307 309 315 313 304 302 302 304 311 311 311 308 307 306 305 305 304 303 303 304 305 304 304 304 303 303 302 302 301 301 300 301 294 301 302 302 302 300 300 300 299 299 299 299 300
310 313 314 311 313 314 313 311 310 315 318 315 310 308 310 314 314 311 310 309 309 307 306 305 304 305 304 303 302 302 303 302 301 297 297 296 297 298 302 303 302 304 301 301 291 296 300 300 300 300 299 299 299 302
310 315 313 312 310 308 314 318 315 321 323 320 319 316 313 313 314 314 310 308 307 306 305 305 304 304 302 300 299 300 302 302 302 301 298 297 298 301 301 300 301 301 301 300 300 300 294 299 297 302 301 300 300 299
316 315 313 312 311 315 318 322 324 324 322 320 321 316 313 311 310 311 310 310 309 307 304 304 303 303 302 301 300 299 298 301 302 301 301 301 301 301 301 302 303 302 302 301 300 299 298 301 300 299 298 297 297 297
315 313 311 309 313 320 321 319 319 317 318 317 317 316 311 308 305 307 310 309 307 305 299 304 302 300 301 302 302 302 297 301 301 301 300 301 301 302 303 303 303 303 303 301 300 300 299 299 297 297 296 296 296 296
314 314 315 313 314 313 318 317 315 314 316 314 315 315 312 309 306 310 311 311 309 308 305 304 303 303 303 302 302 300 299 299 294 290 290 289 288 292 299 302 303 303 302 302 301 299 298 297 297 296 296 297 296 297

GFSWCAN_sfc_thetae_072.txt.gz
Theta_e
314 313 312 312 311 311 311 311 311 312 312 313 313 313 315 316 315 315 316 320 313 309 308 310 308 305 305 304 297 302 300 300 298 293 290 289 288 291 287 291 290 289 289 289 290 287 284 302 300 294 301 305 305 305
313 313 311 311 311 311 311 311 311 311 312 313 313 313 314 315 315 314 315 320 319 311 309 315 313 313 310 308 305 303 300 301 301 296 294 292 289 291 289 286 294 288 290 286 291 292 301 302 300 303 303 302 303 304
313 311 311 311 311 311 311 311 311 311 312 312 312 313 314 314 315 313 317 319 317 311 310 308 306 313 315 312 313 305 306 304 303 304 297 293 288 291 287 288 288 293 294 289 290 295 296 298 301 302 302 302 304 305
312 311 311 311 311 311 311 310 310 311 311 312 312 312 313 314 315 314 316 320 316 312 305 308 317 312 315 313 312 311 308 308 307 304 300 294 291 296 289 291 287 290 292 289 289 294 293 296 296 297 297 300 302 305
310 310 310 310 310 310 311 310 310 311 311 311 312 314 314 314 315 314 318 319 320 311 304 307 312 314 314 314 311 310 308 305 304 301 299 296 299 296 296 293 289 294 290 287 286 292 291 291 295 298 299 302 307 305
310 309 310 310 311 310 310 311 310 310 310 311 312 314 314 314 312 317 313 319 318 318 306 302 313 314 314 313 310 307 308 307 305 301 301 302 302 300 294 288 294 299 298 297 293 296 297 296 297 298 297 299 304 306
309 309 310 310 310 310 310 310 310 310 310 311 312 314 314 314 314 313 311 315 312 315 307 304 308 314 314 313 310 308 309 307 306 304 303 300 301 301 298 286 298 300 301 300 299 298 294 295 293 297 297 299 303 304
309 309 310 310 310 310 310 309 310 310 310 310 311 313 312 313 312 313 316 312 312 311 310 303 303 310 314 306 303 309 306 306 305 304 304 301 300 300 289 299 301 301 301 300 300 300 298 298 298 298 299 298 296 298
308 309 309 310 310 310 309 309 309 310 310 310 312 312 315 311 313 317 313 313 316 311 303 305 302 298 313 310 308 306 307 303 307 304 302 303 293 286 295 299 301 301 300 300 300 300 299 297 297 297 298 297 295 295
309 309 309 310 310 310 309 309 309 309 310 311 313 313 310 318 314 313 311 307 307 308 309 306 310 303 309 309 306 306 303 301 298 301 304 300 292 303 304 302 305 305 303 303 298 296 298 297 298 298 298 298 298 298
308 309 309 310 310 310 309 308 309 310 309 315 317 316 320 313 316 311 309 308 310 306 310 310 309 305 312 306 306 308 303 304 295 299 298 298 297 300 303 302 306 306 304 303 302 303 301 301 299 299 300 299 298 298
308 309 309 309 310 309 310 309 309 312 321 315 314 318 321 315 312 308 307 308 305 303 311 307 309 310 309 313 308 307 301 301 293 303 298 290 301 304 303 303 303 306 306 304 303 303 303 302 302 301 301 301 299 299
308 308 309 309 310 310 310 309 309 310 312 322 318 314 313 312 297 302 299 303 297 305 310 308 305 309 310 313 307 304 296 295 304 297 292 298 304 304 305 304 304 305 306 306 304 305 304 303 304 303 302 303 303 300
308 308 309 309 310 310 310 309 309 310 312 316 312 296 306 304 305 304 306 306 311 309 310 307 305 306 306 297 298 296 300 300 293 290 292 298 299 304 305 306 305 304 304 305 304 304 303 304 304 305 304 304 303 302
308 308 309 310 311 310 309 309 309 315 318 313 312 298 305 309 310 312 313 310 311 313 311 308 305 304 299 294 297 297 293 291 293 293 297 303 307 307 305 304 304 304 304 303 304 304 304 303 303 304 304 305 304 304
308 307 316 311 312 312 308 309 313 321 320 315 313 308 311 310 309 312 308 309 313 312 310 306 300 298 297 299 295 293 292 290 294 298 301 305 307 306 306 305 305 305 305 305 304 304 304 304 303 303 304 305 305 304
306 323 310 311 311 311 309 316 320 318 315 312 310 315 311 311 308 308 311 309 313 309 303 304 298 297 302 296 294 298 292 296 300 301 304 309 307 306 306 306 306 305 305 305 306 305 304 304 306 304 303 306 304 305
315 315 311 312 314 314 321 317 320 315 311 314 312 314 316 316 312 311 312 312 310 307 306 302 305 298 295 293 294 300 301 303 305 305 306 308 309 308 307 306 306 306 306 307 306 306 305 304 302 302 305 306 304 304
311 311 310 309 312 317 320 321 320 311 313 315 317 316 316 315 315 315 313 315 316 314 311 307 301 298 299 302 301 301 302 304 302 304 308 308 307 309 309 308 307 307 307 306 306 304 303 304 303 302 302 303 302 303
308 308 309 309 310 319 317 318 324 316 312 314 315 314 315 314 314 314 314 313 310 308 303 300 300 303 303 305 307 306 307 311 310 302 306 307 306 308 307 305 304 307 305 306 305 300 303 302 303 302 301 302 302 300
311 318 313 316 317 320 319 317 318 317 315 312 317 316 313 314 312 310 309 311 306 304 302 305 305 308 312 313 312 312 313 314 311 311 307 308 307 306 306 306 305 305 302 300 303 303 300 301 301 302 303 301 303 303
324 314 324 321 320 322 318 321 317 318 315 314 314 315 312 308 309 309 312 306 306 306 308 309 309 308 309 311 311 313 313 312 313 312 305 306 303 303 302 303 303 303 302 300 302 302 303 302 302 303 302 302 302 301
313 318 323 323 317 311 308 321 314 316 310 312 314 309 309 309 311 314 306 307 307 312 312 311 312 315 314 315 313 310 310 310 309 309 306 304 305 304 302 302 302 300 300 301 302 302 302 298 301 303 303 303 302 302
312 319 316 315 315 307 318 314 316 313 314 311 309 306 307 310 313 308 302 305 308 310 308 314 309 308 311 312 307 307 306 306 306 305 304 302 301 302 303 302 302 301 301 301 302 303 303 301 299 302 302 302 301 301
305 304 308 295 315 313 310 310 311 309 307 310 308 308 309 312 306 302 301 305 307 306 305 307 307 306 304 304 304 305 308 305 303 301 302 302 301 302 301 301 301 301 303 302 302 302 301 302 301 301 300 299 299 300
297 308 301 310 310 309 309 306 308 308 310 307 308 312 312 308 302 300 305 306 306 305 304 304 303 302 302 303 302 302 302 305 304 301 301 301 300 299 298 298 298 298 302 302 301 301 298 299 300 299 299 299 298 300
299 305 311 315 315 315 311 310 313 311 307 306 309 306 305 301 301 305 312 313 308 307 307 306 304 302 302 303 304 304 305 304 303 301 302 302 301 301 300 298 297 299 302 302 302 301 299 300 300 299 299 300 300 300
311 311 307 311 311 314 310 310 308 306 309 310 312 305 302 304 305 310 312 313 310 307 306 306 305 304 304 303 304 305 305 305 305 304 303 302 302 301 301 300 300 294 302 301 301 302 301 301 300 299 300 299 300 301
311 313 312 310 311 313 313 310 310 310 313 313 310 308 311 314 314 313 312 311 311 307 305 305 305 305 304 303 303 303 303 303 301 298 297 297 298 298 301 301 301 302 301 300 292 296 299 299 300 300 300 300 301 300
309 312 310 311 309 308 309 310 311 317 317 317 318 316 314 314 315 316 313 311 309 307 306 305 305 305 302 301 301 301 303 303 303 301 298 297 298 301 301 301 301 301 302 301 301 300 296 299 298 301 301 300 300 300
313 312 311 311 312 313 315 313 316 320 320 318 319 315 314 314 314 314 313 312 312 308 305 304 303 303 303 301 301 300 299 302 302 302 302 302 302 302 301 302 302 302 302 301 301 300 300 300 299 298 298 298 297 297
314 312 310 309 311 312 314 315 315 315 316 316 315 316 314 311 308 310 313 313 310 307 299 305 302 301 303 303 304 303 299 302 302 302 302 302 302 302 303 302 303 303 303 301 300 300 299 299 298 298 296 297 296 297
313 314 314 311 312 307 312 316 313 312 314 313 314 316 314 311 308 312 314 314 312 310 306 305 304 304 305 304 303 301 300 299 294 290 291 290 289 293 301 303 302 303 302 301 300 300 299 298 298 297 297 297 297 297

GFSWCAN_sfc_thetae_075.txt.gz
Theta_e
315 314 313 312 312 312 312 312 312 311 312 313 314 314 315 317 316 313 317 320 312 307 308 310 309 304 303 302 295 299 298 298 295 290 288 288 285 287 286 288 289 287 285 286 286 283 279 298 298 291 294 297 298 299
315 314 312 311 311 312 311 311 311 311 312 313 314 314 315 316 316 314 315 321 320 311 309 314 314 314 311 308 302 302 298 298 297 294 291 290 286 288 287 283 291 285 289 286 287 288 295 295 294 296 297 295 296 297
314 313 311 311 311 311 311 311 311 311 312 312 313 313 315 316 315 314 312 317 317 311 310 310 308 313 313 311 309 301 302 302 301 302 296 293 286 290 284 285 288 291 294 288 288 292 293 293 295 295 295 295 297 298
313 312 311 311 311 311 311 311 311 311 311 312 312 313 314 315 315 314 311 315 316 312 304 308 315 311 315 312 311 309 306 307 306 302 297 293 289 294 288 290 288 291 292 289 289 292 292 295 295 295 296 297 297 299
312 311 310 310 311 311 311 311 311 311 310 311 312 313 314 315 314 313 313 317 319 310 303 304 311 314 314 312 310 310 307 305 302 299 296 293 296 295 295 293 288 293 290 287 284 293 292 292 296 296 295 295 296 297
311 310 309 310 311 311 311 311 311 311 311 311 312 313 315 315 314 312 313 318 318 318 307 300 313 311 311 312 310 307 306 305 303 300 298 299 301 296 290 287 294 297 298 296 293 296 295 296 297 297 296 297 298 298
311 309 309 310 311 311 311 311 310 310 310 311 312 313 314 314 312 311 309 313 312 318 306 301 305 312 312 311 309 307 307 304 303 303 299 298 299 299 293 286 295 299 299 299 299 298 295 296 294 298 298 297 299 299
310 309 309 310 311 311 311 310 309 310 310 310 311 313 313 313 311 309 315 313 316 312 309 300 302 308 313 305 302 308 303 304 304 302 301 298 299 296 286 295 299 301 301 300 300 299 298 298 298 299 300 298 296 296
309 309 309 309 310 311 310 309 309 309 310 310 311 313 312 309 310 315 317 314 315 311 302 302 301 298 312 308 306 305 306 299 305 299 300 298 289 284 289 296 299 301 299 300 300 300 299 297 298 298 297 296 295 296
309 309 309 310 310 310 310 310 309 309 310 310 311 310 309 316 316 316 310 306 305 306 306 300 308 302 308 308 305 302 302 297 294 299 303 293 288 296 301 304 302 302 301 302 298 295 296 297 298 298 297 297 297 296
308 308 309 310 310 310 310 310 309 309 309 311 312 314 317 316 314 310 306 303 304 302 304 306 306 303 311 302 302 306 299 299 291 296 295 294 294 299 304 303 304 304 303 301 301 302 299 299 298 298 298 298 297 297
308 308 309 309 310 310 310 310 309 308 317 312 311 314 319 314 310 305 304 305 300 300 305 305 308 308 311 312 304 299 296 298 289 302 296 288 298 302 302 302 304 304 304 303 304 303 302 302 301 300 300 298 298 299
308 308 309 309 309 310 310 310 309 309 310 318 314 313 312 311 296 299 295 300 300 305 305 308 305 310 310 306 298 298 293 292 302 291 288 295 297 301 302 304 304 305 306 304 304 304 305 304 303 302 301 301 300 299
308 308 308 309 310 310 310 310 309 308 309 312 312 293 305 303 303 302 301 303 309 306 308 310 305 304 305 299 298 291 292 299 289 287 290 295 297 301 302 305 303 303 305 305 303 304 303 303 302 303 303 302 302 300
308 308 309 310 311 310 309 308 308 311 314 313 313 296 305 308 307 309 311 311 312 312 308 306 303 303 300 296 297 297 293 290 292 290 296 300 301 302 303 303 302 304 302 302 303 303 303 303 302 301 303 302 303 301
308 308 312 312 312 311 308 308 310 317 318 315 313 308 312 310 311 310 311 307 310 309 310 307 301 299 298 299 295 293 290 286 291 297 301 304 304 304 304 304 304 304 304 302 302 303 304 302 300 302 303 303 302 302
306 318 312 312 312 311 309 312 316 315 314 313 309 312 310 313 310 312 309 308 314 307 302 304 298 295 301 296 293 298 292 297 300 302 305 305 304 304 304 305 305 305 305 303 303 302 303 303 303 303 300 303 302 302
314 312 312 312 313 311 317 313 318 316 311 313 309 312 313 316 312 311 313 314 312 308 307 301 305 298 295 292 294 299 301 303 305 304 305 306 307 306 306 305 306 306 305 306 305 304 302 301 303 300 301 303 303 303
309 309 309 310 310 313 318 319 319 310 312 314 315 317 317 315 318 318 315 317 317 316 311 306 300 297 297 300 300 302 302 304 303 304 306 308 307 307 306 306 307 305 303 304 303 302 301 302 300 302 302 302 301 300
307 308 309 308 308 315 316 318 325 317 312 315 318 316 318 315 317 317 315 314 314 310 304 301 300 304 304 307 308 307 307 308 307 303 304 305 307 307 305 305 304 303 302 302 303 301 301 301 302 301 300 301 299 299
317 315 311 312 312 316 316 318 317 316 314 312 311 310 312 318 315 312 310 314 309 306 303 306 307 310 313 313 313 313 311 311 307 307 307 305 303 302 303 303 304 303 301 301 300 299 300 300 299 301 301 300 301 301
322 313 321 315 317 321 318 322 317 318 314 314 315 314 312 311 311 311 314 309 307 309 310 310 312 311 310 310 312 312 312 312 311 309 304 304 302 302 300 301 301 300 299 300 300 298 300 300 300 301 301 300 299 300
314 317 320 322 316 310 307 324 316 317 311 312 315 311 305 306 311 317 309 311 310 316 315 314 314 316 314 315 309 311 312 311 308 306 305 303 303 303 301 301 301 299 300 301 301 300 301 298 300 300 301 301 301 300
314 317 315 314 313 305 318 315 316 314 314 311 309 305 306 309 314 308 304 306 309 312 312 312 312 312 316 312 308 309 307 308 306 302 302 302 300 301 303 301 300 300 301 302 301 301 300 300 298 300 301 300 300 300
302 303 306 293 313 313 310 310 311 310 308 311 309 305 306 312 305 303 302 308 308 306 308 310 308 307 302 303 303 303 306 303 300 298 300 301 300 300 299 299 300 300 301 300 299 300 299 300 300 299 298 298 299 300
294 308 299 308 308 308 309 306 308 308 307 306 308 307 308 304 303 301 306 309 308 306 306 306 304 303 302 302 301 300 301 303 301 298 299 299 300 298 298 296 296 298 302 301 301 300 300 300 300 300 298 298 296 299
298 304 311 315 312 313 311 313 312 310 307 304 306 304 303 300 301 308 315 316 307 308 310 308 306 303 302 302 303 304 304 304 302 300 301 301 300 300 299 296 296 299 302 302 302 301 300 299 299 299 298 300 300 300
308 311 306 310 310 311 309 310 307 304 307 312 310 304 303 303 305 313 314 312 309 309 307 306 306 304 303 303 304 304 304 304 304 302 301 300 300 299 300 299 300 296 298 297 300 301 300 299 299 299 299 298 298 300
306 310 311 309 310 312 311 309 307 309 311 309 307 308 310 315 315 313 311 309 308 307 305 304 304 304 303 303 304 304 304 303 302 299 297 295 296 298 301 301 300 300 298 296 292 295 298 298 299 300 300 299 300 300
306 310 308 308 308 307 311 316 313 314 315 315 316 317 314 314 315 315 312 312 308 307 306 306 305 305 301 301 300 301 302 302 301 300 297 296 297 299 300 301 301 300 301 299 298 298 295 299 298 301 299 298 298 298
310 310 309 309 310 314 316 316 316 316 317 314 315 314 312 313 314 317 314 313 310 307 304 303 302 302 302 301 301 299 298 301 303 302 302 301 301 301 302 302 302 301 301 301 300 299 299 299 299 298 297 297 298 296
311 310 309 309 312 317 317 314 314 312 313 309 310 315 314 311 309 312 315 314 310 306 301 305 301 300 304 303 302 302 298 301 300 300 303 302 302 302 302 301 301 302 302 300 300 299 299 298 297 297 296 297 297 297
312 313 314 312 311 311 313 312 309 310 311 307 308 315 311 310 308 313 317 318 315 309 306 305 303 304 306 303 301 299 297 296 293 291 291 291 291 294 299 300 301 303 302 301 300 299 299 299 298 298 298 298 298 297

GFSWCAN_sfc_thetae_078.txt.gz
Theta_e
316 315 314 313 312 312 312 312 312 311 312 313 314 315 316 317 316 308 307 311 305 298 301 304 306 298 297 294 289 293 292 292 289 282 282 283 282 284 282 284 284 285 282 283 284 284 280 294 292 288 291 292 294 295
316 315 313 312 311 311 312 311 312 312 312 312 314 314 315 315 315 312 304 312 311 303 302 308 309 307 304 302 296 295 293 292 292 287 286 283 284 287 281 281 287 285 284 282 284 285 293 294 291 295 293 292 293 293
315 313 312 311 310 311 311 311 311 311 311 312 313 314 314 314 315 312 303 306 307 302 302 302 303 308 305 305 303 296 294 297 294 295 291 289 285 287 282 281 287 288 293 287 287 289 291 293 295 296 296 294 295 295
315 313 311 310 310 311 311 311 311 311 311 312 313 313 314 314 314 314 303 305 305 302 295 299 310 304 307 305 305 302 300 300 298 296 291 287 284 288 286 285 287 289 289 288 286 290 291 293 294 295 296 296 295 296
314 312 311 310 310 311 311 311 312 311 311 311 312 313 314 314 313 308 305 307 309 302 295 297 304 308 306 304 304 303 300 299 296 292 290 291 289 289 288 291 288 292 288 285 281 289 288 290 294 297 296 296 297 296
312 311 310 309 310 311 311 311 311 311 311 311 312 313 314 314 312 305 303 310 310 312 304 293 302 304 304 304 303 302 300 297 297 295 295 295 294 290 285 286 290 293 294 292 289 293 293 294 296 298 297 297 297 298
312 310 309 309 310 311 311 311 311 310 309 310 311 312 313 312 305 303 303 307 309 310 304 297 296 305 306 303 302 303 299 297 296 296 293 291 293 293 284 286 289 294 296 296 298 295 294 294 293 296 299 299 299 299
311 310 309 309 310 310 311 311 310 309 309 310 311 311 312 311 308 303 307 309 308 306 306 294 296 301 305 298 297 300 298 296 298 297 295 292 291 289 283 289 292 296 298 298 299 297 297 296 296 297 300 298 296 296
311 309 308 309 309 310 310 310 310 308 309 310 311 312 307 303 301 306 317 315 312 307 300 299 292 294 305 300 303 302 301 295 301 296 295 291 286 278 285 287 294 297 296 296 299 298 297 296 296 298 297 296 295 295
310 308 308 309 309 310 310 310 310 308 309 310 306 303 301 308 317 315 308 302 302 302 303 295 300 297 305 302 302 299 301 296 293 297 299 290 287 291 292 294 297 298 298 297 294 292 293 293 294 296 295 296 296 296
309 308 308 309 309 310 310 310 310 309 309 303 303 308 311 316 309 307 302 300 300 296 297 297 303 298 304 297 298 300 295 297 288 293 294 291 290 296 298 299 299 298 298 299 298 296 296 295 295 296 296 297 297 297
308 307 308 309 309 309 310 310 309 307 305 306 303 307 309 307 305 303 302 303 299 295 300 299 302 305 303 306 300 298 295 295 287 299 292 286 295 299 298 299 301 299 300 301 301 299 299 299 298 297 297 296 297 299
307 307 308 308 309 309 309 309 309 308 306 307 306 308 307 306 293 295 290 294 295 301 301 300 300 301 300 301 298 298 292 291 299 289 286 290 296 299 298 301 303 302 303 302 301 301 301 301 300 298 298 298 298 298
307 308 308 308 309 310 309 308 310 307 303 303 306 291 299 300 300 300 296 299 302 303 300 300 297 295 297 293 296 288 290 296 287 286 288 293 293 295 298 300 300 299 301 301 301 301 300 300 299 299 299 299 298 298
307 308 308 308 309 310 310 308 308 306 305 305 306 293 303 307 304 304 304 303 305 305 301 297 296 296 293 294 291 292 290 287 287 288 294 294 295 295 296 298 297 298 299 299 300 300 299 299 298 297 299 299 299 298
308 308 308 311 311 310 308 308 305 306 310 309 307 306 307 305 302 302 303 300 301 301 300 298 294 292 291 292 290 289 287 285 290 292 295 296 296 299 298 296 298 299 298 297 297 298 299 297 296 296 298 298 300 297
307 312 311 311 311 309 307 307 308 308 309 309 306 308 306 305 303 302 301 301 302 298 294 295 291 290 293 289 288 291 287 291 293 295 296 297 297 299 299 298 301 301 301 300 297 297 297 297 297 297 296 297 298 298
311 309 312 311 310 308 307 305 311 313 308 310 305 307 307 307 303 303 303 304 302 299 297 295 296 291 288 288 288 294 294 298 296 298 297 298 299 300 303 302 303 303 300 301 299 301 300 297 296 295 295 297 297 296
305 305 308 309 308 307 311 311 310 305 308 309 309 308 308 307 306 305 306 306 305 303 300 297 293 290 290 293 293 295 295 296 296 297 298 298 299 300 300 300 300 301 299 299 298 298 299 298 295 296 297 297 296 296
307 308 308 308 308 306 309 310 317 309 308 311 312 308 311 310 307 305 305 306 304 299 295 293 294 295 295 297 299 298 299 299 298 295 295 297 298 297 296 297 298 300 301 300 297 298 299 298 298 297 297 296 295 295
310 309 309 307 304 306 308 309 312 309 308 306 307 306 305 310 307 305 301 302 298 295 294 297 297 299 301 302 303 303 301 300 298 298 296 293 295 296 296 296 296 296 297 295 296 296 297 294 296 297 296 294 295 296
309 312 311 309 310 313 308 311 308 311 305 307 307 308 304 303 305 304 303 299 299 298 299 299 300 301 302 300 302 304 302 302 304 299 299 297 294 293 293 294 294 294 294 296 297 296 298 299 299 299 297 294 296 296
312 313 313 315 310 303 302 314 308 309 305 307 309 306 302 302 305 307 299 300 300 303 303 301 301 303 302 305 303 301 300 301 298 297 296 295 295 295 295 296 295 294 293 294 296 297 297 297 298 300 300 300 296 295
313 310 310 309 307 299 310 308 310 307 308 304 306 304 303 304 308 301 297 297 300 301 298 297 300 304 302 301 298 294 295 295 294 294 295 294 292 292 293 292 293 294 294 294 294 293 297 297 297 300 299 299 296 295
300 299 301 292 305 307 306 306 307 307 304 305 305 303 302 304 300 298 295 297 297 296 295 296 297 297 298 293 293 293 294 293 291 291 292 294 292 292 291 292 292 293 294 294 294 297 297 298 298 296 295 296 296 296
291 302 298 303 303 303 305 304 306 307 306 305 303 304 305 301 299 297 298 298 296 296 295 294 295 293 292 293 292 292 292 292 292 290 290 293 293 292 290 290 290 292 294 295 294 294 295 295 295 294 294 295 295 296
294 301 305 308 304 304 306 308 308 304 305 301 302 301 299 296 299 301 302 300 297 297 297 296 297 295 294 292 293 294 294 293 292 292 292 292 292 293 292 290 290 290 295 297 296 295 295 295 294 294 295 295 296 297
304 304 301 303 303 304 305 305 304 302 304 307 306 301 300 301 300 305 305 300 299 298 296 295 296 296 295 295 295 295 294 294 293 292 291 291 290 292 292 292 292 293 292 294 295 295 295 294 294 294 295 293 294 295
302 304 304 301 303 305 308 306 305 306 308 304 301 300 304 308 307 301 299 300 300 298 295 294 294 294 293 293 293 294 296 296 292 290 289 288 288 290 292 292 292 291 289 290 292 293 295 295 295 295 295 294 294 294
300 303 300 301 301 302 308 310 308 308 309 310 310 309 308 307 306 304 301 299 298 297 297 297 296 294 292 292 291 292 293 293 294 294 290 288 290 292 292 293 293 292 290 291 290 290 293 295 294 294 294 293 292 292
303 301 300 301 301 308 312 313 312 311 310 310 313 311 309 307 306 305 304 303 301 297 296 294 294 294 294 292 292 291 290 292 294 294 293 292 293 293 292 293 294 295 293 293 293 293 293 294 292 293 293 292 293 292
303 302 302 302 307 311 313 311 311 309 309 308 308 310 309 308 302 304 307 303 298 296 298 296 295 293 294 294 295 294 294 292 293 294 294 293 293 294 294 293 293 295 294 294 293 293 293 292 291 291 292 292 292 292
305 305 308 308 306 308 309 309 306 307 307 307 308 309 310 308 304 306 309 308 302 299 298 297 298 296 294 295 293 292 291 290 290 291 291 291 291 292 292 293 294 295 295 294 293 293 293 293 292 292 292 292 291 291

GFSWCAN_sfc_thetae_081.txt.gz
Theta_e
316 316 315 313 312 311 312 311 312 311 312 313 314 314 315 315 315 307 306 307 303 296 299 303 303 297 295 292 289 291 291 290 287 281 278 275 280 281 280 280 284 284 278 279 280 281 279 294 292 287 288 289 291 292
316 315 314 313 311 311 311 311 312 312 312 312 313 314 315 315 315 311 304 307 307 302 300 305 308 308 303 300 294 291 290 289 289 283 280 282 284 287 279 272 289 284 282 278 281 280 289 292 290 293 295 293 293 293
315 315 313 312 310 310 311 311 311 311 311 311 312 313 314 314 315 310 301 302 304 299 300 301 302 307 303 303 302 294 293 295 292 292 287 284 283 284 279 283 283 285 291 286 285 285 288 290 293 295 295 295 296 296
315 315 313 311 310 310 311 311 311 311 311 311 312 313 314 314 314 312 300 302 303 299 294 298 308 303 305 303 303 301 299 296 295 293 287 284 279 285 281 281 280 285 290 285 287 287 288 291 293 293 296 297 297 298
314 314 312 310 309 310 311 311 311 311 310 311 312 312 313 314 313 307 303 304 306 301 294 296 302 306 305 302 302 302 300 296 294 290 288 285 286 286 285 287 286 288 286 285 282 287 287 288 292 296 297 297 298 297
313 312 311 309 309 310 311 311 311 311 310 310 311 312 313 313 311 304 302 307 307 307 300 293 300 302 300 301 300 299 301 299 295 293 292 295 293 290 285 282 287 290 291 290 288 290 291 292 294 296 297 298 299 298
313 312 311 309 309 310 310 310 311 310 309 309 310 311 311 311 303 302 301 306 307 308 301 295 294 302 302 300 300 301 301 299 298 295 294 295 294 294 285 283 289 291 293 293 293 292 292 294 292 296 298 299 300 299
313 311 310 308 309 310 310 310 310 309 308 309 310 311 311 311 307 302 305 309 308 306 305 295 293 297 303 298 298 301 298 296 298 297 295 292 293 292 286 289 291 292 294 295 295 295 296 294 294 295 298 299 296 296
312 311 309 308 309 309 310 310 309 309 309 309 310 311 305 302 300 304 316 313 312 307 297 298 288 293 305 301 303 303 303 295 302 295 295 295 286 286 290 290 291 294 295 295 297 297 296 295 295 295 294 294 294 295
311 310 308 308 308 309 309 309 310 309 309 309 305 303 305 304 315 315 305 301 299 298 302 294 295 296 300 298 300 298 298 295 291 296 297 292 287 293 293 291 294 297 297 296 293 292 292 292 292 292 294 294 296 294
310 309 308 308 308 309 309 309 309 308 308 301 302 304 307 314 307 305 299 296 299 295 294 296 296 295 301 295 298 300 296 296 287 291 289 289 290 296 298 295 296 297 297 297 297 296 295 294 293 293 294 295 298 295
309 308 307 308 308 309 309 309 309 305 301 304 304 304 307 304 302 302 299 299 297 294 299 301 299 299 304 306 300 298 294 292 285 296 289 285 292 298 298 299 300 298 299 299 300 298 298 298 297 296 295 295 298 294
307 307 307 308 308 309 309 309 309 307 305 304 304 307 306 302 292 293 289 292 294 301 300 298 297 299 298 298 296 296 289 291 297 290 286 290 293 296 297 299 301 300 300 300 300 300 300 299 300 297 296 296 296 295
306 307 308 308 308 309 309 309 309 307 300 301 303 291 299 300 298 295 294 294 299 300 299 297 295 293 293 292 292 287 289 295 285 286 286 290 293 295 296 297 298 298 299 300 300 300 300 299 298 298 298 297 296 295
307 308 308 309 309 309 309 308 308 306 303 303 303 293 300 307 302 302 301 300 303 302 299 296 294 294 291 290 290 289 288 285 287 286 288 293 294 294 295 296 296 296 297 298 300 299 299 299 297 296 297 297 297 297
308 308 309 310 310 308 307 307 306 304 306 304 304 301 305 301 300 300 301 300 301 298 297 296 292 290 289 290 288 286 287 282 287 290 293 293 294 295 296 299 297 299 296 297 298 298 296 296 296 295 296 297 296 296
308 310 310 310 310 308 307 306 304 305 306 306 303 305 304 303 302 300 300 299 299 296 292 292 289 288 290 288 286 289 285 288 292 293 294 294 294 297 298 300 302 303 301 299 299 299 297 297 295 295 294 295 296 296
309 309 311 310 308 306 305 306 308 310 305 306 303 305 304 305 302 304 301 301 300 297 295 293 293 289 287 286 286 290 292 293 294 295 295 295 295 297 300 297 300 300 301 299 299 300 300 297 296 296 294 294 295 294
304 305 310 310 308 305 307 308 306 302 305 306 307 306 308 308 307 306 302 303 302 300 298 294 291 289 289 290 291 293 293 293 293 294 294 295 295 296 296 296 297 296 297 299 299 300 298 297 295 296 295 294 294 294
308 308 308 308 308 303 305 307 311 306 305 306 306 305 306 305 307 304 302 305 303 299 294 292 292 293 293 294 296 296 296 296 295 292 292 293 294 293 293 294 294 294 294 294 297 298 299 297 296 295 296 295 294 294
308 308 308 305 302 303 304 305 307 308 306 304 305 303 303 305 304 302 303 303 300 298 294 295 295 297 297 298 299 299 298 297 297 296 294 291 293 293 293 293 293 293 292 291 292 294 296 296 297 297 299 297 295 295
304 310 306 306 307 308 303 306 304 306 303 305 305 306 302 302 303 302 303 299 299 299 296 296 296 297 299 299 303 301 300 299 299 296 296 295 292 291 292 292 292 292 291 292 293 296 297 299 299 298 296 295 295 294
309 310 311 311 307 301 301 311 307 306 302 303 306 304 304 300 302 305 297 297 297 299 299 299 298 299 300 301 298 296 298 296 293 293 294 292 291 291 292 293 292 291 291 291 292 293 296 297 298 299 300 297 295 293
308 307 307 306 305 299 307 305 307 305 305 302 303 301 304 303 306 299 295 295 298 298 295 295 301 296 294 293 291 292 292 294 293 292 292 291 289 288 289 290 291 291 292 291 292 293 295 295 297 298 299 298 296 293
298 298 300 291 303 304 304 304 304 304 303 302 301 301 301 302 298 296 294 295 296 293 293 295 297 294 292 289 289 290 290 293 292 291 290 290 289 289 290 290 291 291 293 292 293 293 293 295 295 294 296 296 294 294
291 300 296 302 300 301 302 301 304 302 304 303 303 301 300 298 297 296 297 297 294 294 293 296 294 290 290 291 289 288 289 289 291 290 290 290 291 290 289 289 289 291 293 293 293 292 293 293 292 293 294 294 293 294
293 299 302 305 302 301 301 304 306 301 301 300 300 298 296 294 296 300 299 296 295 295 295 296 295 293 291 290 289 290 290 290 292 291 290 291 291 292 291 289 288 290 293 294 294 294 293 293 293 294 293 294 294 293
302 301 300 300 300 301 300 303 302 300 301 302 301 298 298 299 299 303 302 300 296 294 294 294 294 294 292 292 292 291 289 289 289 288 289 288 288 289 289 290 289 292 291 293 293 294 294 293 293 293 293 292 292 293
299 302 300 297 299 300 304 304 305 306 306 304 301 298 302 307 307 298 297 296 294 295 294 292 291 292 291 291 291 291 292 292 289 287 287 285 285 288 289 289 288 288 289 290 292 293 294 294 293 293 293 292 292 291
298 301 297 297 297 297 302 307 307 309 307 305 305 305 305 304 301 298 298 297 294 294 295 294 291 291 290 290 289 288 290 291 293 292 288 287 288 289 290 290 290 288 287 289 290 290 293 293 292 292 291 290 290 290
299 297 296 296 296 299 307 310 309 309 307 307 310 308 308 306 304 301 299 299 297 295 295 293 291 290 291 289 291 289 288 289 291 292 292 290 289 290 290 291 291 289 289 290 290 291 292 291 290 290 290 290 290 290
299 298 298 296 300 307 309 307 307 306 305 304 304 307 308 307 301 302 303 300 296 294 295 296 295 292 293 292 291 290 291 291 292 293 292 291 291 291 291 290 291 292 291 292 291 291 292 291 289 289 290 290 289 289
300 301 304 305 304 304 306 308 307 305 304 304 304 306 308 308 304 307 306 302 301 299 296 295 294 293 294 293 292 291 291 291 291 291 292 291 291 291 291 291 292 294 293 292 291 292 291 290 290 290 290 290 289 289

GFSWCAN_sfc_thetae_087.txt.gz
Theta_e
315 315 315 316 314 313 311 311 311 312 312 313 313 314 315 315 315 314 313 313 311 307 306 306 306 302 301 301 298 298 298 297 296 292 291 288 287 288 287 288 289 289 288 288 289 286 283 298 294 291 294 296 296 297
315 314 315 315 314 312 311 311 311 312 312 312 313 314 314 314 315 311 312 311 312 310 306 309 310 310 309 307 302 299 298 296 297 292 291 291 289 289 287 287 292 288 292 290 292 291 296 298 296 298 297 296 297 297
314 314 314 315 313 311 310 311 311 311 312 311 312 313 314 314 314 310 309 309 312 309 308 308 307 311 311 309 309 302 301 301 299 300 295 294 288 292 286 287 289 292 294 292 291 295 296 298 299 299 299 298 298 299
313 314 314 314 313 311 310 311 311 311 311 311 312 313 313 314 313 310 309 309 311 307 303 303 311 309 309 308 308 308 305 302 302 301 297 295 293 294 291 291 291 295 295 293 291 294 295 297 299 299 299 300 300 301
312 313 313 314 313 310 310 311 311 311 311 309 310 312 312 313 312 310 311 311 312 309 303 305 309 309 310 308 307 307 306 302 299 298 296 294 295 293 294 294 289 295 294 292 294 299 298 298 300 301 300 300 302 301
312 312 313 313 312 309 309 310 310 310 310 309 309 310 312 312 310 313 310 313 314 314 307 301 308 307 308 306 306 305 306 302 300 297 295 296 297 298 290 287 297 298 299 301 298 300 300 302 302 302 301 302 303 303
312 312 313 313 311 309 309 310 310 310 309 308 308 309 310 310 311 309 309 311 310 312 306 301 301 306 306 304 305 305 306 304 304 299 296 296 295 297 294 287 299 298 299 300 300 300 297 300 300 303 303 304 304 304
311 312 313 312 311 309 309 309 310 309 308 308 308 309 310 310 309 311 314 310 311 311 309 299 300 304 308 304 301 303 303 304 301 300 299 296 295 294 288 296 299 299 299 299 299 301 303 303 303 303 304 304 302 302
311 312 313 312 310 308 309 309 309 309 308 308 309 310 310 310 311 311 313 312 314 310 303 301 298 298 307 304 305 305 306 297 301 295 295 295 288 286 294 297 298 299 299 301 301 301 301 301 302 304 303 302 301 302
311 311 312 311 309 308 308 309 309 309 308 308 309 310 309 312 314 315 311 306 307 307 306 300 302 301 304 307 305 301 301 295 289 292 296 291 290 297 298 301 302 298 300 302 300 300 301 301 302 303 302 303 303 303
311 312 311 309 308 308 308 309 309 308 307 308 310 310 312 312 312 309 304 302 302 301 302 302 303 301 308 303 302 303 297 293 289 292 291 290 291 298 301 301 303 303 302 303 305 304 304 304 303 302 302 303 303 303
311 311 309 308 308 308 308 308 309 306 306 308 309 309 311 309 306 302 302 303 300 300 302 303 306 302 307 308 303 302 295 294 288 298 291 288 298 301 303 302 304 306 305 303 305 305 305 304 304 304 304 304 304 304
310 309 308 307 307 308 308 308 308 307 307 309 308 308 307 306 296 297 295 299 301 305 305 305 305 307 305 305 302 298 293 292 300 291 289 296 302 303 304 304 305 305 305 305 305 306 306 305 306 305 305 305 305 303
306 306 307 308 308 309 309 308 309 308 306 305 305 292 302 301 303 304 304 305 307 307 306 306 305 302 302 300 300 294 297 296 290 287 290 297 303 303 304 305 303 304 304 305 305 306 306 306 307 307 307 306 305 302
307 307 308 309 308 308 309 308 308 307 306 304 306 295 302 309 310 310 308 307 307 309 306 302 302 302 301 298 299 296 291 288 290 291 297 302 303 303 304 305 304 304 305 304 305 303 304 306 306 305 306 306 306 304
307 309 310 309 308 308 308 308 307 306 309 306 305 305 309 308 309 307 308 308 309 307 305 305 300 296 296 298 293 291 290 288 293 298 302 303 303 304 305 305 306 306 306 306 305 304 305 306 303 305 305 305 305 304
308 311 309 309 308 308 307 307 306 305 305 306 307 311 310 310 309 311 309 308 308 305 299 300 295 293 298 294 292 296 294 298 301 303 305 304 303 304 305 305 305 305 305 305 305 305 305 303 301 301 299 302 304 305
310 311 310 308 308 306 306 307 307 307 304 308 306 310 311 313 312 312 310 305 306 304 302 299 301 295 293 290 293 299 300 303 304 304 305 305 304 304 304 303 304 303 303 303 303 303 303 303 301 301 301 301 304 305
306 308 310 309 309 309 308 307 307 302 306 312 313 313 313 314 314 315 311 308 309 308 304 302 298 296 297 299 300 302 303 303 302 305 305 304 303 302 302 303 303 302 302 302 302 301 302 301 298 301 300 300 302 304
308 308 308 310 309 305 304 308 311 307 307 312 313 312 314 314 314 311 309 307 307 306 304 299 300 302 301 304 305 306 307 307 306 304 304 304 304 302 301 301 301 302 302 302 302 298 301 299 296 298 300 300 301 301
308 308 309 307 305 305 306 308 309 312 314 311 313 313 312 311 311 309 307 308 305 304 302 305 306 306 306 307 308 308 306 307 306 306 305 302 302 302 302 302 301 302 301 300 299 299 298 297 299 301 302 302 303 304
308 309 308 306 307 306 304 308 305 308 309 310 310 311 310 309 310 309 309 306 306 308 308 308 306 306 305 306 306 308 309 307 306 301 299 299 299 299 299 299 301 300 300 299 298 296 298 300 301 303 302 301 300 301
308 310 312 310 307 302 301 313 309 310 306 309 311 307 308 309 309 310 304 305 307 308 307 307 306 307 307 306 306 305 307 306 303 301 300 300 300 299 299 300 300 299 299 300 302 299 299 298 303 304 303 302 300 299
307 309 308 306 304 299 310 308 311 310 310 308 307 304 307 308 309 307 304 305 307 307 306 307 305 303 302 304 302 302 302 304 302 300 301 299 298 298 300 300 300 301 302 302 301 301 301 303 299 304 303 302 299 298
300 300 301 292 306 305 306 307 308 307 305 306 303 304 306 308 305 305 304 306 305 305 305 306 305 306 302 299 299 299 301 302 300 298 299 300 299 299 299 300 300 301 302 300 300 300 301 303 303 302 301 301 299 298
291 300 297 305 304 303 304 303 305 305 306 304 305 308 308 305 301 301 306 308 305 303 305 305 303 300 300 301 299 299 300 302 301 299 299 300 300 298 298 297 297 299 304 302 301 300 300 301 301 301 300 297 294 298
292 299 304 308 305 305 305 305 308 306 304 304 306 303 303 298 299 305 310 308 305 304 308 307 305 304 301 299 299 300 301 302 302 301 302 301 302 303 301 298 297 300 303 303 303 301 300 300 300 300 300 300 300 299
304 304 300 304 305 308 305 303 304 304 306 308 306 302 301 301 303 312 311 308 306 305 306 304 304 304 301 301 300 299 299 298 298 300 299 300 301 301 300 301 301 291 301 303 303 303 302 301 300 300 299 299 300 301
301 305 305 302 303 303 303 303 306 311 312 309 306 305 307 312 315 314 310 305 304 303 302 300 299 300 299 299 299 299 298 298 297 296 296 296 296 298 300 299 300 302 302 301 292 298 301 301 301 300 300 301 299 300
301 305 303 302 300 299 303 307 312 315 314 314 313 312 313 313 313 307 301 301 302 303 304 303 299 299 298 298 297 296 298 299 299 299 296 296 296 299 300 300 299 299 301 301 301 300 293 300 297 301 300 300 300 299
304 302 301 300 299 303 306 308 313 313 313 312 313 311 313 313 309 303 301 300 299 300 301 300 299 300 299 299 298 296 295 297 297 299 300 301 300 300 300 301 301 299 299 301 301 301 301 301 300 299 298 297 297 297
304 302 300 298 301 307 314 313 312 311 312 312 311 312 312 311 305 304 301 304 304 301 298 300 300 300 301 302 301 301 295 301 299 299 300 300 300 301 301 301 301 299 300 300 301 301 301 300 299 298 298 297 297 297
305 303 303 303 303 307 311 312 310 309 310 309 309 311 312 311 307 313 310 308 309 309 302 301 303 302 303 301 301 301 296 302 299 294 294 294 295 297 300 301 301 300 299 299 300 300 299 299 298 298 298 298 298 298

GFSWCAN_sfc_thetae_093.txt.gz
Theta_e
313 314 315 316 316 316 314 310 311 312 313 313 314 315 316 316 316 316 322 324 319 313 313 311 311 310 308 308 304 307 305 304 303 299 300 300 299 301 298 301 299 298 297 296 298 295 292 306 303 298 306 308 306 306
313 313 314 315 315 316 314 310 311 312 312 313 313 314 315 315 316 314 320 324 324 317 316 317 317 317 315 313 310 307 306 303 306 306 305 305 300 302 299 295 303 297 302 301 300 299 309 308 307 310 309 307 305 306
311 313 314 314 315 315 313 310 311 311 311 312 313 314 314 315 315 314 319 323 321 316 315 314 312 317 319 318 317 308 310 310 307 309 307 304 298 303 298 299 300 302 305 302 300 304 305 306 307 306 306 307 306 306
310 312 313 314 314 315 313 309 310 311 311 311 311 313 314 314 314 313 321 323 321 316 308 311 318 316 320 319 317 316 314 314 314 310 305 303 300 305 301 303 302 304 305 302 301 303 305 306 305 306 306 307 306 306
310 311 312 313 314 315 313 309 310 310 311 310 310 311 313 313 313 317 326 326 325 317 310 311 316 316 318 318 316 315 314 313 312 306 304 301 303 304 304 303 302 304 303 301 300 305 305 305 308 309 307 306 307 306
310 310 311 313 313 314 312 309 309 310 310 310 309 309 311 312 313 321 316 324 327 322 314 305 315 314 316 316 316 315 313 312 313 306 304 307 307 305 297 298 305 307 307 307 305 309 308 309 310 310 308 308 308 307
310 311 311 312 313 314 310 309 309 310 309 308 308 309 310 311 316 317 315 318 314 324 314 308 306 315 316 315 315 312 314 312 311 306 306 308 301 301 296 294 302 306 308 308 309 308 306 307 306 310 309 309 307 308
310 311 312 312 313 313 310 308 309 309 309 308 308 309 311 311 311 317 321 313 314 319 317 308 305 309 316 308 307 314 308 309 307 307 305 300 297 297 289 301 306 305 305 305 308 309 309 310 310 310 310 310 308 307
310 311 311 312 313 311 309 308 309 309 309 308 309 311 317 317 317 319 315 315 324 319 311 310 306 301 315 309 311 313 314 306 310 299 298 298 290 286 297 304 304 301 304 305 307 308 308 307 308 309 309 308 307 307
310 311 311 312 312 309 308 308 308 309 308 309 314 318 313 319 314 316 319 316 316 317 314 309 311 304 311 308 312 310 311 302 298 299 303 296 295 304 307 308 307 303 303 308 303 302 305 305 306 307 307 308 308 308
311 311 311 312 310 308 308 308 309 309 306 318 317 316 322 314 319 314 308 308 312 308 311 312 309 306 314 305 306 310 303 305 296 297 299 295 297 304 307 306 308 306 306 306 306 307 307 307 305 306 306 308 308 308
311 311 312 311 309 309 309 309 309 311 316 314 316 318 322 314 311 306 306 310 307 305 310 308 310 311 312 314 308 305 299 302 293 303 296 292 304 307 308 307 308 308 308 307 308 308 309 309 308 308 308 308 308 308
311 310 309 308 308 308 308 309 308 308 308 319 315 312 311 309 299 303 301 304 305 309 311 311 308 311 311 310 304 304 297 296 305 298 295 299 307 308 311 310 310 312 311 310 309 310 310 310 311 310 308 309 310 309
308 308 307 307 308 309 309 309 309 309 314 311 309 298 305 305 308 309 309 309 310 312 312 313 308 307 310 305 305 297 303 302 295 293 292 303 308 308 309 310 309 307 309 309 309 309 309 309 310 312 311 311 310 309
308 308 308 309 308 309 309 309 309 314 314 308 309 300 308 314 314 315 315 313 314 316 313 308 308 307 305 303 303 301 296 293 296 294 299 306 309 309 309 309 308 307 307 306 308 308 308 308 308 309 312 312 311 309
308 310 314 309 309 309 309 309 312 318 314 310 309 308 313 314 314 312 315 315 315 314 317 312 306 302 300 302 298 295 294 292 297 302 305 307 309 309 309 309 308 308 308 307 306 306 306 306 306 308 310 312 312 310
307 320 309 309 309 309 309 315 316 311 309 307 307 311 312 314 314 316 315 314 319 315 305 305 300 298 304 297 296 303 298 300 304 305 307 311 308 308 309 308 308 307 306 305 306 306 306 306 307 307 306 309 311 312
317 315 309 309 310 312 317 316 314 311 306 309 306 312 316 318 318 319 319 321 318 313 311 303 309 301 298 294 297 302 305 309 309 309 308 311 312 312 310 308 307 306 305 306 305 305 305 303 304 304 305 307 309 309
310 311 309 308 311 314 314 314 313 306 308 310 313 315 317 318 322 323 323 322 320 319 314 311 305 304 302 307 307 305 307 308 307 309 310 313 314 312 309 307 306 306 305 305 305 304 304 306 305 305 307 308 306 305
308 309 309 310 309 313 310 313 320 313 310 315 318 315 317 319 320 322 320 319 317 315 309 307 307 309 309 309 310 310 309 310 308 306 308 310 309 309 307 304 304 306 305 305 304 300 300 301 302 302 305 305 302 301
307 312 310 312 314 314 313 312 312 314 313 314 317 321 316 318 317 317 315 318 315 311 308 311 313 316 319 316 315 314 312 312 308 308 307 307 309 307 307 307 306 305 304 303 302 303 301 302 305 304 303 302 304 304
315 310 317 315 314 315 313 315 311 314 311 310 311 314 312 311 314 318 318 314 312 314 315 317 317 315 317 316 315 313 317 316 315 308 302 302 304 304 304 305 306 304 304 303 307 305 306 308 308 304 305 305 304 306
308 313 315 315 310 307 305 318 311 310 305 309 315 311 311 315 317 322 313 315 316 321 322 322 322 322 318 319 318 318 317 314 310 308 306 305 304 307 305 307 305 303 301 303 305 307 306 301 306 305 304 305 304 303
308 314 310 309 307 304 313 310 314 313 314 312 311 308 311 313 317 313 310 312 316 318 317 321 318 316 316 316 312 313 313 311 308 306 305 303 303 304 306 305 305 304 305 306 305 303 303 304 300 304 304 305 302 301
303 304 306 296 311 308 306 306 309 309 307 311 309 310 312 316 311 309 309 312 315 316 317 317 316 315 312 311 310 310 312 308 305 303 304 305 304 304 304 306 305 306 306 304 302 303 304 306 306 307 303 303 302 301
294 305 301 306 306 305 304 302 305 307 309 307 309 315 316 312 306 304 310 314 315 317 317 316 314 312 310 310 308 306 306 308 306 303 304 304 305 304 303 302 302 302 308 306 304 303 303 304 304 302 302 300 295 301
297 302 307 311 310 309 307 308 309 307 305 305 311 311 309 303 303 309 317 320 318 320 319 318 315 311 308 306 306 307 306 307 306 305 306 307 308 309 307 304 303 304 307 307 306 304 302 302 302 302 301 301 303 303
307 307 303 307 308 308 303 304 305 305 307 312 312 306 304 304 309 317 316 319 319 319 317 314 311 308 306 306 306 305 305 306 306 306 306 307 307 307 307 306 306 296 305 306 304 305 306 303 302 302 301 301 304 306
306 310 309 305 306 306 306 305 306 309 312 312 309 309 310 316 320 321 319 317 315 310 305 304 304 309 306 306 306 306 306 305 302 300 300 300 301 302 306 306 304 305 306 305 293 298 303 303 303 303 303 304 304 305
307 311 307 306 304 303 307 309 308 310 312 314 315 314 314 316 321 323 320 315 312 308 305 304 305 305 303 302 303 305 306 306 306 304 302 302 302 305 305 305 305 306 306 305 304 303 295 301 299 303 303 303 303 301
310 310 308 308 306 309 311 312 313 312 311 311 313 311 313 318 317 322 316 315 312 305 305 304 307 305 305 304 304 303 303 306 307 307 307 308 306 306 306 305 306 306 306 307 305 304 303 302 303 303 302 301 300 298
310 308 307 305 307 312 312 310 310 309 310 313 316 319 318 316 311 310 312 311 306 306 304 308 308 305 307 307 306 306 296 306 306 307 307 306 306 306 306 306 306 306 306 306 305 304 304 303 304 303 301 301 301 301
311 311 310 308 308 308 311 312 312 313 317 315 313 316 314 315 311 311 312 311 308 310 314 312 309 308 309 308 307 305 303 308 303 297 297 295 297 301 306 306 306 305 305 305 305 304 303 303 303 302 302 302 301 302

GFSWCAN_sfc_thetae_096.txt.gz
Theta_e
313 313 314 315 316 316 317 314 311 312 313 314 314 315 316 317 317 315 321 326 319 315 314 312 311 309 309 308 304 308 305 306 303 299 301 302 300 302 298 301 300 298 296 295 297 294 292 307 304 298 307 310 309 308
311 312 313 314 315 316 317 314 311 312 312 313 314 315 316 316 316 315 319 324 324 316 315 319 316 317 315 313 310 308 305 308 306 303 304 304 300 301 299 295 303 298 301 300 300 301 309 308 309 311 310 308 307 307
311 311 312 314 315 315 316 314 310 312 312 312 313 314 315 315 316 315 320 323 320 316 315 315 312 316 318 317 317 308 311 311 308 309 305 303 300 303 297 299 301 303 305 302 303 306 307 307 310 310 311 308 308 308
312 311 311 312 314 315 316 314 310 311 311 312 312 313 314 315 315 314 321 323 321 317 308 311 320 316 320 319 318 316 315 315 313 309 304 303 301 306 301 303 303 304 304 301 302 305 306 307 307 307 307 309 307 307
312 311 311 312 313 314 316 313 310 311 311 312 312 312 313 314 314 315 323 325 325 317 309 310 316 317 318 318 315 315 314 312 310 306 304 302 305 305 305 304 302 305 302 302 299 306 306 306 308 308 306 306 307 307
311 311 311 311 313 314 316 311 310 311 311 311 311 311 311 312 313 318 317 324 325 323 314 307 315 314 316 316 315 314 314 312 310 307 304 308 310 305 301 299 306 307 309 310 305 310 309 310 311 310 308 308 309 308
311 311 311 311 313 314 315 310 310 310 310 310 310 310 311 312 315 316 314 318 315 323 316 308 308 315 316 315 314 314 315 310 310 307 307 307 305 305 301 294 304 307 308 309 310 309 307 309 307 311 310 310 310 310
311 311 311 312 313 314 312 310 310 310 311 310 310 310 311 311 312 316 321 313 315 320 317 307 306 309 316 310 309 314 310 311 311 310 307 304 304 300 291 301 305 307 308 308 308 310 309 310 310 310 311 310 308 307
310 311 311 312 313 313 310 310 310 310 311 310 310 311 317 317 318 319 316 317 324 319 312 308 304 302 314 310 311 312 313 306 308 303 301 303 292 287 297 304 305 307 306 307 307 308 307 306 309 310 309 308 307 307
310 311 311 312 313 311 309 309 309 310 310 310 312 318 313 319 314 315 319 317 317 317 314 308 311 305 310 310 310 310 309 305 300 301 304 299 297 304 307 309 310 309 307 308 304 303 305 305 306 308 307 307 309 309
311 311 311 312 311 309 309 309 310 310 308 316 317 317 322 315 320 317 311 309 311 307 311 310 310 306 314 304 305 309 305 305 297 300 298 297 297 305 309 307 310 308 308 308 309 308 308 307 305 306 306 309 309 309
311 311 311 311 309 308 309 309 310 310 315 311 315 319 322 315 310 307 308 309 306 304 310 308 310 310 311 312 306 307 301 301 295 304 298 292 302 308 308 308 309 310 309 308 309 308 308 309 310 308 307 310 310 311
311 311 310 310 309 309 309 309 309 309 310 318 315 312 311 310 299 303 302 304 306 310 311 310 308 311 311 309 306 304 298 297 305 299 296 300 307 309 311 309 310 313 312 311 310 310 310 310 311 309 309 311 311 312
309 310 309 309 309 309 308 309 309 310 311 312 309 296 306 304 308 308 308 308 311 311 310 311 310 307 309 305 304 298 302 301 295 294 294 305 308 309 309 309 308 307 308 309 309 310 310 311 310 312 310 310 310 310
308 308 308 309 310 310 310 310 309 312 315 308 309 298 307 312 313 315 314 313 314 315 312 309 311 308 305 303 303 301 295 293 296 295 300 307 310 309 308 308 307 307 307 308 308 308 309 310 310 310 311 311 311 313
309 310 315 309 309 309 309 309 309 317 314 310 309 307 311 311 309 314 314 313 317 316 314 311 306 302 301 302 299 296 295 293 297 302 307 310 310 309 309 308 310 308 307 306 306 306 306 306 306 306 308 309 310 312
307 317 309 309 309 309 310 314 317 312 310 308 307 310 309 311 313 314 312 317 319 314 306 308 300 299 305 298 296 300 298 301 305 306 310 312 311 310 309 309 308 307 306 305 306 306 306 307 307 305 305 308 308 311
314 315 309 309 310 314 317 315 314 311 306 308 306 308 313 317 317 316 319 315 318 312 312 306 309 302 300 297 298 304 304 306 308 309 309 313 313 312 310 309 308 306 306 306 306 307 306 305 304 305 307 307 306 307
309 311 310 309 310 313 314 315 314 306 308 310 310 312 313 316 321 319 321 319 319 319 314 310 306 303 304 308 307 307 306 306 307 309 312 315 314 312 310 308 306 307 306 306 306 304 304 304 304 303 304 307 305 307
308 309 310 310 309 314 311 313 319 311 308 312 313 312 312 314 319 319 316 321 318 316 311 306 307 309 310 311 313 309 308 309 308 305 308 311 312 311 309 306 305 306 306 306 305 302 305 304 303 303 304 304 304 302
306 314 310 312 313 314 314 313 312 313 312 310 314 314 314 316 317 315 315 321 312 312 310 313 313 317 320 319 315 312 313 311 308 309 308 307 309 307 306 306 307 305 304 304 304 303 303 306 305 304 303 302 301 302
317 311 316 314 313 315 313 315 311 313 312 312 309 311 312 311 313 315 318 313 313 314 316 313 316 317 319 318 318 316 319 318 316 308 303 303 303 304 304 304 305 304 304 304 303 305 306 308 310 308 305 304 304 303
308 313 314 314 310 306 305 316 311 311 305 307 309 306 308 310 316 319 314 315 315 319 321 322 326 325 322 321 319 318 317 313 310 309 306 305 304 306 305 306 305 303 303 304 306 307 305 302 304 306 305 306 305 305
308 312 310 309 309 303 312 310 312 310 311 310 309 308 311 314 315 310 309 312 314 321 320 326 321 318 318 318 314 314 314 313 311 307 306 304 304 304 306 305 305 305 305 305 305 305 305 303 301 305 304 303 304 303
303 302 304 294 311 308 305 305 306 307 306 309 308 307 311 315 310 309 308 312 311 314 319 320 318 317 313 313 312 313 317 309 306 304 305 306 305 304 304 306 304 305 307 305 303 303 304 304 304 303 305 303 303 302
294 305 299 307 306 305 305 302 304 306 307 307 305 312 314 311 305 304 309 310 312 316 318 317 315 313 313 312 308 307 307 308 308 304 305 305 305 304 303 303 302 303 307 306 304 303 303 303 302 302 302 300 296 301
298 303 309 313 310 309 307 307 308 306 305 305 307 307 310 303 304 307 309 314 317 319 321 323 318 312 306 306 308 309 308 308 308 306 307 307 308 308 307 304 303 304 306 306 305 304 303 302 302 302 302 302 302 302
307 308 304 307 308 309 305 304 303 303 306 311 311 306 305 305 304 313 316 319 319 314 313 312 310 308 307 309 308 307 306 307 308 307 307 307 308 307 308 306 305 296 305 306 306 306 305 304 303 302 302 301 303 304
307 310 309 306 307 307 307 306 306 308 311 310 309 309 309 311 314 318 318 318 315 312 309 307 307 310 309 309 308 307 307 305 303 301 301 301 302 303 306 305 303 304 306 304 293 299 303 302 302 303 303 304 304 304
307 311 307 306 304 305 309 311 309 312 312 311 313 314 315 318 321 322 320 316 313 309 309 310 310 307 307 305 304 305 306 307 306 304 302 302 303 305 306 306 306 306 306 305 304 302 296 300 299 303 302 303 303 303
311 310 307 307 306 310 312 314 314 313 312 310 312 310 312 316 316 321 318 317 314 310 311 309 307 307 305 304 304 303 302 305 308 308 307 307 307 306 306 306 306 307 306 306 305 305 304 303 303 303 302 302 301 300
310 308 307 305 308 313 314 311 310 310 310 310 311 318 318 317 310 312 313 311 309 309 308 310 308 305 307 307 307 304 300 306 307 307 307 306 307 307 307 307 307 306 306 306 305 305 304 303 303 303 302 302 302 302
310 311 311 309 308 308 311 310 310 310 314 315 316 316 315 315 309 311 313 313 310 310 311 313 311 310 311 308 307 306 305 308 299 295 297 297 296 301 306 307 307 306 305 305 305 305 304 303 303 303 302 302 302 302

GFSWCAN_sfc_thetae_102.txt.gz
Theta_e
313 314 313 312 312 313 315 316 317 314 313 314 314 315 316 316 316 311 307 311 308 302 306 307 307 303 301 298 295 298 298 298 294 291 291 287 287 290 289 293 291 290 287 288 289 286 284 304 302 295 298 299 304 305
313 313 313 313 312 312 313 316 317 313 313 313 313 314 314 315 316 314 309 315 316 306 307 311 308 309 306 304 299 299 297 296 295 292 293 292 289 290 289 283 294 288 293 291 293 292 298 302 300 301 300 299 301 303
313 313 313 313 312 311 312 315 317 314 312 313 313 314 314 314 315 312 307 311 311 307 306 305 302 307 311 308 305 298 300 301 299 297 294 293 291 292 284 287 290 294 297 293 294 298 299 301 302 304 303 301 302 302
312 313 313 313 313 311 312 315 317 314 312 313 313 313 313 314 313 312 306 311 312 308 300 303 311 311 310 310 309 307 304 304 302 299 292 293 292 296 291 291 291 295 295 293 293 297 300 302 302 303 303 303 302 302
312 312 312 313 312 312 312 314 316 313 312 312 313 312 312 312 312 308 306 311 313 308 301 302 307 307 309 309 309 308 305 301 299 297 294 292 296 295 295 294 292 296 294 290 290 297 296 298 301 305 303 302 302 301
311 312 312 312 312 312 312 314 316 312 311 312 312 312 311 311 311 310 309 314 311 312 305 302 307 305 307 309 307 306 304 302 299 296 295 297 298 295 287 283 296 298 301 300 297 301 301 303 303 304 302 302 303 301
311 311 312 312 312 312 313 314 314 310 311 311 311 312 311 310 305 309 308 312 308 311 307 300 302 307 309 307 305 305 304 302 301 298 296 296 295 295 290 286 294 298 300 302 303 302 299 302 300 304 303 304 306 303
311 311 312 312 311 312 313 314 310 309 311 311 311 311 310 310 309 309 311 310 308 309 310 301 299 301 305 304 300 303 300 301 301 298 296 293 294 294 288 292 296 299 301 301 301 302 301 302 304 306 304 305 302 301
311 311 311 311 311 312 314 312 309 310 310 311 311 311 309 309 309 311 318 315 310 311 304 303 297 295 306 301 301 302 303 295 299 293 292 293 287 286 289 291 295 299 298 300 302 303 303 301 301 304 305 305 303 301
311 311 311 311 312 313 312 309 309 310 310 310 307 310 307 313 319 317 312 306 306 307 306 300 300 298 303 299 303 303 299 294 289 293 295 289 288 292 293 295 298 301 301 301 296 296 298 299 303 302 301 305 306 306
311 311 311 311 312 312 309 308 309 309 309 305 310 311 313 317 312 308 303 303 303 300 303 302 301 299 305 298 297 299 295 294 285 291 289 286 287 295 300 298 300 302 303 302 302 302 303 301 302 302 303 306 307 307
311 311 311 312 312 309 308 308 308 306 304 302 301 304 309 310 304 300 300 302 300 299 302 301 301 301 302 301 298 297 293 294 286 296 289 285 291 298 302 303 303 302 303 304 304 303 303 304 303 302 302 303 305 307
311 311 311 311 309 309 309 309 308 307 306 306 306 305 304 303 293 297 296 298 297 302 303 302 299 300 301 300 296 295 292 291 298 290 286 289 293 300 301 302 304 304 305 306 305 305 306 305 305 304 306 304 304 306
309 311 311 310 310 309 309 308 308 305 304 304 303 290 299 297 300 300 301 304 307 305 303 302 302 300 300 297 296 292 295 296 290 286 289 294 297 301 301 303 303 304 305 305 306 306 305 304 305 307 305 305 304 303
309 308 308 307 308 309 310 309 308 303 303 303 304 292 299 304 305 310 310 308 310 307 305 302 301 299 296 295 294 294 293 291 290 287 293 297 299 300 299 300 299 300 300 298 299 299 300 300 299 298 299 301 303 303
310 309 307 310 310 309 308 308 304 304 306 304 303 300 301 302 304 304 306 306 309 311 306 302 299 296 296 296 294 293 291 288 290 294 298 301 300 299 299 299 299 299 297 296 298 298 298 298 298 297 299 299 299 300
309 310 309 309 309 309 309 305 303 305 305 303 300 302 301 300 301 304 305 306 312 309 303 300 298 296 298 293 293 295 291 293 298 300 302 300 300 300 300 300 299 298 297 297 297 297 297 297 296 296 295 296 298 299
306 307 309 308 307 309 307 305 307 307 303 303 299 300 301 303 304 307 309 311 310 308 308 304 307 299 295 294 292 297 298 299 301 304 303 302 302 301 302 298 298 297 298 298 297 297 296 295 295 294 294 295 297 297
307 307 309 309 307 305 308 307 307 301 303 303 304 304 304 304 308 312 313 313 312 313 309 305 301 299 299 299 299 299 302 303 303 303 304 304 303 303 300 298 297 298 297 296 296 296 295 295 295 295 294 295 294 299
308 308 309 310 308 303 304 306 310 304 301 302 304 303 304 304 311 311 312 309 308 309 306 303 303 303 302 303 305 303 302 305 305 303 303 304 305 301 299 297 296 297 297 296 296 297 296 295 295 295 295 295 297 298
310 308 309 307 303 304 303 304 306 307 306 304 305 305 303 307 310 308 307 308 303 304 303 307 308 307 309 307 307 304 303 309 308 306 305 304 302 302 300 297 300 298 296 295 295 295 297 296 296 297 295 295 295 297
308 310 307 306 305 308 304 308 306 306 303 304 303 303 301 298 303 306 310 307 305 306 307 307 307 309 308 306 306 306 308 305 304 305 302 304 301 299 296 298 298 296 296 295 295 296 297 298 298 298 296 296 297 297
308 308 307 308 305 299 297 308 304 305 300 301 303 301 301 301 306 310 303 305 305 310 312 314 313 313 312 311 311 309 306 303 302 300 298 297 297 298 299 297 298 296 295 295 296 296 297 298 299 299 299 297 296 296
309 305 303 302 300 294 304 303 306 304 303 301 301 300 302 303 308 304 300 304 306 310 313 314 312 312 311 310 308 306 307 305 301 298 299 299 297 295 297 298 297 297 298 297 297 298 297 299 297 297 298 298 297 297
298 295 296 289 301 302 302 302 301 301 299 301 301 300 302 306 301 301 301 303 307 307 307 311 310 312 310 309 309 309 307 303 299 298 297 298 297 296 296 295 295 297 300 297 296 296 296 297 298 300 297 297 299 298
291 299 294 300 300 300 300 301 302 301 303 302 302 304 302 299 300 301 303 306 307 309 308 309 309 311 310 311 308 305 306 305 301 298 298 299 298 297 296 295 293 294 297 297 297 297 297 296 296 296 294 294 295 298
293 298 302 305 302 303 301 303 305 303 301 301 302 302 301 299 301 304 308 309 309 310 311 312 311 308 305 302 304 304 307 306 304 301 299 298 300 300 299 297 295 295 297 299 298 298 297 297 297 296 295 295 296 296
300 302 298 301 301 304 300 300 301 300 301 307 304 299 299 302 301 307 310 309 306 303 303 304 311 306 304 305 305 305 305 303 300 300 301 300 300 301 299 298 297 296 298 299 299 299 298 297 297 297 296 295 295 296
300 303 302 299 301 302 304 302 301 303 305 306 303 303 304 308 311 310 311 309 305 304 302 301 303 306 305 305 305 304 300 299 297 295 294 294 294 293 294 296 296 296 296 296 296 296 297 296 296 296 297 296 296 295
299 303 299 300 299 299 302 305 303 306 307 307 312 312 311 310 312 314 309 306 304 304 303 304 304 305 302 298 296 295 297 299 298 297 295 294 294 294 294 297 297 296 295 295 294 293 294 294 294 295 295 295 295 294
304 303 300 300 299 303 305 307 308 307 307 306 310 309 305 307 308 308 307 306 305 305 304 302 303 302 299 296 296 295 295 297 298 299 298 298 299 298 298 298 299 299 297 295 293 293 293 294 295 296 297 296 294 294
304 303 302 300 301 306 308 305 305 304 305 308 308 308 308 306 303 304 307 305 304 302 302 303 301 299 300 299 299 299 298 300 299 299 299 299 299 299 299 298 299 300 299 297 297 295 295 295 296 297 296 297 296 296
305 305 305 304 303 306 308 308 305 308 308 306 307 308 308 307 303 304 308 308 305 304 305 305 302 301 300 300 299 299 299 300 299 295 294 296 297 298 297 297 298 299 300 299 299 299 299 300 298 298 298 297 297 297

GFSWCAN_sfc_thetae_105.txt.gz
Theta_e
313 314 314 314 314 311 312 313 316 317 313 313 313 315 315 315 315 310 308 310 305 301 304 306 306 301 298 296 293 295 296 296 291 290 289 284 285 288 287 290 288 288 284 285 285 284 285 301 300 295 298 301 309 308
313 313 313 313 314 312 311 313 315 316 313 313 313 314 314 315 315 313 306 311 312 305 305 309 306 306 304 302 298 296 295 294 293 292 290 290 287 288 285 281 292 287 291 289 290 289 297 299 297 298 299 301 305 306
312 312 313 313 314 313 311 312 314 316 313 312 313 313 314 314 314 312 305 307 308 304 303 304 301 306 307 306 303 299 298 299 295 295 292 292 289 289 283 285 288 292 295 292 293 296 297 299 300 300 301 301 305 307
312 312 313 313 313 313 312 311 314 316 312 312 313 312 313 313 313 312 303 306 309 306 297 300 309 306 307 308 308 304 302 301 299 295 292 291 290 293 288 290 288 293 293 291 291 296 298 299 299 300 300 302 304 307
311 312 312 312 313 313 312 312 314 315 312 312 312 312 312 312 312 307 304 307 309 307 300 300 305 305 306 307 306 304 302 299 297 295 292 292 293 293 292 292 289 294 292 289 289 295 295 297 299 302 300 300 301 302
311 311 311 312 312 312 312 312 314 315 311 311 312 312 312 311 311 309 306 311 308 309 304 297 304 304 306 306 305 304 302 299 297 294 293 294 296 293 285 281 293 296 299 297 297 300 300 301 303 303 300 301 302 301
311 311 311 312 312 312 311 312 314 313 310 311 311 311 311 310 304 309 306 310 307 309 305 298 298 305 306 304 303 302 302 300 299 295 294 293 293 293 287 286 292 296 298 300 302 300 298 301 299 303 302 302 304 302
311 311 311 312 312 312 312 313 314 309 310 310 311 311 310 310 309 309 311 309 308 308 308 298 297 300 304 299 299 300 299 299 299 295 294 291 290 291 287 292 294 297 299 300 301 301 300 301 301 303 302 301 300 300
311 311 311 311 311 311 312 314 310 309 309 310 310 310 309 308 308 311 317 312 309 309 302 300 295 294 303 298 299 303 300 294 296 291 291 291 287 285 289 291 293 297 297 298 300 301 301 299 300 302 304 302 298 298
311 311 311 311 311 312 313 310 308 308 309 309 308 310 305 310 318 316 310 304 305 304 303 299 299 297 300 299 302 300 298 291 288 291 293 287 287 290 292 293 295 299 300 300 294 296 296 296 300 300 304 305 303 302
311 311 311 311 312 312 309 308 308 308 309 306 306 307 310 316 310 306 301 301 301 298 300 301 298 297 302 298 298 301 293 291 283 289 288 284 286 292 297 296 296 297 300 301 300 300 300 300 299 300 302 306 306 305
311 311 311 311 312 308 308 308 308 307 304 301 300 302 306 307 301 298 298 300 299 298 300 299 299 300 300 300 297 295 292 292 286 293 288 282 290 295 298 300 300 299 301 302 302 302 302 302 302 301 301 302 304 306
309 311 311 311 308 308 309 308 307 307 305 304 303 301 302 301 292 295 294 297 295 299 301 300 297 299 297 298 295 294 291 289 295 289 284 289 292 296 298 301 303 302 303 303 303 303 303 303 303 302 301 302 305 305
308 310 310 309 309 309 308 308 308 306 304 302 300 289 296 294 297 297 299 302 304 303 300 299 298 298 297 296 295 292 293 294 288 284 288 292 294 296 299 302 301 302 303 303 303 304 304 303 303 304 304 303 302 302
309 307 307 307 308 308 309 309 309 304 303 301 301 292 297 302 303 306 306 307 306 303 301 301 301 298 295 296 296 294 292 290 290 287 292 294 296 298 299 299 300 300 301 301 298 298 298 298 297 296 297 298 300 301
308 308 307 309 309 309 308 307 302 303 303 301 300 297 300 300 304 306 306 307 306 304 301 302 299 298 296 295 293 292 290 287 289 292 294 296 296 298 297 297 297 297 295 296 296 297 297 296 296 295 296 296 297 298
308 308 308 309 309 308 308 304 302 302 302 302 298 300 299 299 300 305 303 304 307 306 300 301 298 297 296 293 293 294 291 293 294 295 298 299 300 298 297 297 296 296 296 296 296 295 295 295 294 294 292 293 294 296
306 308 309 308 306 307 304 303 305 305 301 302 297 298 299 300 300 304 305 306 305 304 303 301 303 297 294 294 293 295 295 296 298 298 299 299 299 299 299 297 296 296 296 295 295 295 294 294 293 291 291 292 294 294
307 307 308 308 306 303 306 305 304 299 301 301 301 301 301 301 302 306 307 308 309 309 306 302 300 298 299 298 298 299 298 300 300 299 300 300 300 299 297 297 296 296 295 295 294 294 294 294 293 292 291 291 291 294
308 309 308 309 308 301 301 302 307 301 299 299 300 299 301 301 307 308 308 306 305 305 302 301 300 301 300 301 303 301 302 301 302 300 301 302 300 299 297 296 296 295 294 294 294 295 293 292 293 293 293 293 292 293
308 307 309 306 302 303 300 300 303 304 304 302 303 303 303 308 307 307 306 306 302 301 300 303 305 307 306 307 307 302 301 305 305 304 304 302 302 300 296 295 296 294 294 293 294 294 295 294 295 294 293 293 293 294
307 310 304 305 304 304 299 302 302 305 302 302 301 301 299 298 302 304 306 303 301 302 303 303 305 307 307 307 305 302 304 305 304 305 304 303 300 297 296 297 296 295 294 294 295 295 295 296 296 295 294 294 295 295
308 307 305 305 302 298 297 305 303 303 299 301 301 299 298 298 302 307 301 302 304 305 306 309 311 312 311 310 309 306 304 305 306 305 304 305 301 299 298 298 298 296 293 293 295 295 295 296 296 297 296 295 294 294
307 303 301 300 298 293 301 300 304 302 301 300 299 297 299 300 304 301 298 300 304 306 309 309 310 308 307 308 307 306 304 302 301 300 302 300 298 297 299 299 297 297 297 297 295 294 295 296 296 296 297 296 296 295
297 294 295 288 298 301 300 300 300 301 299 301 298 298 299 302 299 298 299 301 302 304 307 308 307 307 305 305 306 305 306 302 300 296 295 299 299 294 293 296 298 298 297 296 295 295 295 295 296 299 296 296 296 295
291 297 292 298 297 298 300 300 301 301 300 300 300 302 304 300 297 298 303 303 303 306 306 307 306 307 305 305 305 305 302 301 301 298 297 298 299 299 296 295 294 294 296 297 296 296 296 296 296 297 293 295 295 296
293 297 300 301 300 302 299 301 306 303 300 300 299 299 300 298 299 303 306 306 305 308 310 310 309 309 309 308 302 305 306 304 303 300 298 298 298 300 300 296 293 294 295 298 298 298 296 295 295 294 293 294 295 296
301 301 296 298 297 299 297 297 298 298 301 302 301 299 297 299 300 304 307 307 307 302 301 306 308 304 302 304 305 306 306 306 298 296 297 295 294 294 296 295 295 294 296 297 298 297 297 296 295 295 294 293 294 295
297 300 299 296 298 299 300 301 300 302 306 304 300 300 300 303 308 307 309 304 302 300 299 300 300 301 302 306 306 306 301 297 295 292 292 291 291 293 292 295 295 295 295 295 294 296 297 296 296 295 295 294 294 294
297 300 297 297 297 296 300 302 302 304 304 307 307 309 307 306 306 310 308 302 300 299 299 300 301 304 302 302 297 296 295 297 298 297 293 292 292 293 293 295 295 294 294 294 293 292 293 293 292 293 294 294 293 293
299 297 296 296 296 299 302 303 303 304 304 305 308 308 304 304 305 306 306 305 301 301 303 301 301 300 298 294 294 294 293 293 295 297 297 295 293 295 295 295 295 293 294 293 292 292 292 292 293 293 294 294 294 293
298 297 297 296 299 305 306 303 303 303 304 306 305 305 304 303 300 303 304 303 302 300 300 301 300 299 299 297 296 296 295 296 296 297 297 296 296 296 296 295 296 296 295 294 293 293 293 294 294 294 294 295 295 293
303 303 303 301 302 302 305 305 303 304 303 302 303 305 306 305 302 306 307 307 305 303 302 303 301 300 299 298 297 297 296 298 297 295 294 295 295 295 295 295 296 298 297 295 294 294 294 294 294 295 296 296 295 295

GFSWCAN_sfc_thetae_111.txt.gz
Theta_e
311 311 312 313 314 314 314 314 312 313 315 316 313 313 314 315 315 314 316 317 313 310 311 310 309 306 304 304 303 303 303 303 302 300 299 298 299 300 298 298 298 297 295 295 294 293 291 305 305 301 306 309 315 318
312 313 313 313 314 314 314 314 313 313 314 316 313 313 314 314 314 314 316 316 316 314 312 313 312 311 310 310 307 304 304 302 305 302 300 300 298 299 296 295 299 297 301 301 299 299 305 306 306 308 308 307 312 319
312 312 312 313 313 313 314 314 313 312 313 316 313 312 313 314 313 312 314 313 316 314 312 311 309 313 314 311 311 307 306 305 303 304 304 302 298 300 297 298 298 300 302 302 302 304 305 306 307 309 310 310 312 318
311 312 313 313 313 313 313 314 313 312 313 315 313 312 313 313 312 311 314 313 316 311 307 308 314 311 313 313 311 311 308 306 304 306 304 303 301 301 299 300 301 302 302 301 301 305 306 306 307 308 311 312 313 315
311 312 312 312 312 312 313 313 313 313 313 315 312 312 312 313 311 312 313 315 316 314 306 308 310 311 312 313 311 311 310 309 307 305 305 303 303 302 302 302 301 304 303 301 299 305 307 306 308 309 309 311 313 314
311 312 312 312 312 312 313 313 313 313 314 314 311 312 312 311 310 318 313 317 316 316 311 304 311 310 312 313 312 311 310 307 307 306 303 303 302 302 300 299 302 306 306 305 306 307 307 309 309 310 309 309 312 314
310 312 312 312 312 312 312 313 313 313 314 312 310 311 310 310 311 315 310 314 311 317 313 305 305 311 312 311 311 311 310 308 308 305 305 305 303 303 301 296 301 306 307 307 309 309 307 307 308 310 310 308 309 312
309 311 312 311 312 312 312 312 312 312 314 310 310 310 310 309 310 315 319 311 313 316 315 304 304 306 311 308 307 309 309 309 305 304 303 303 301 297 295 302 303 305 305 306 308 309 308 309 310 309 310 309 308 309
309 310 312 311 311 311 312 312 313 313 310 309 310 310 313 314 315 317 315 314 319 315 310 307 304 301 310 307 309 309 309 305 304 303 302 301 292 287 301 303 303 305 306 306 308 308 308 308 308 309 309 308 307 308
309 309 311 311 311 311 312 312 313 309 308 309 310 312 311 316 318 318 315 310 312 312 312 309 307 304 308 306 306 307 305 303 300 301 301 299 293 302 303 304 306 306 308 309 305 303 305 306 306 307 308 310 310 308
309 309 310 311 311 312 312 310 308 308 309 310 310 313 313 312 316 312 308 305 305 304 308 309 308 305 309 305 305 307 302 301 297 299 299 297 296 302 305 305 305 306 309 310 309 308 308 309 308 308 308 310 311 308
309 309 310 311 312 312 308 308 307 308 308 307 310 308 313 311 307 304 304 305 304 301 306 306 306 309 307 310 306 303 300 300 294 301 298 291 301 306 305 305 305 306 309 308 309 308 309 309 309 309 309 309 311 312
309 309 311 311 311 308 308 307 307 308 307 310 310 308 307 305 295 298 296 300 301 306 307 305 304 307 304 307 304 302 298 297 301 297 295 299 306 305 306 308 308 307 307 307 309 309 309 310 310 310 310 310 310 311
308 308 310 309 308 308 308 308 309 307 307 307 303 293 299 298 301 302 302 305 309 307 307 307 305 306 305 304 303 298 299 300 295 292 294 304 309 310 307 308 309 307 308 309 310 310 310 309 310 311 311 312 311 311
308 308 308 308 309 310 309 308 309 308 307 303 305 294 299 305 306 308 309 308 310 310 306 306 306 307 301 300 301 299 295 294 296 296 301 306 311 310 307 306 309 310 310 310 311 310 310 310 310 307 306 307 307 308
308 308 308 308 309 309 308 308 306 307 305 303 303 302 305 304 305 307 310 310 311 309 309 308 304 301 300 301 297 297 295 294 299 304 307 307 309 309 309 308 310 311 311 311 310 308 305 305 305 304 304 305 304 305
308 309 308 308 309 308 308 305 305 302 301 301 301 305 305 304 304 308 310 311 314 308 305 306 300 300 303 299 297 301 298 302 306 307 305 308 310 310 309 310 309 308 308 307 305 305 305 305 304 303 302 302 304 305
308 308 308 308 308 308 309 307 304 303 299 302 300 303 305 306 305 307 310 312 311 310 309 305 306 300 300 297 299 305 306 309 308 307 306 308 308 309 309 308 307 307 305 305 304 302 303 303 302 301 303 303 305 305
308 308 308 308 308 307 306 307 307 301 303 306 307 307 306 307 308 308 312 313 315 315 313 310 305 303 304 307 307 307 308 308 307 307 307 308 309 308 306 306 305 305 305 303 303 301 302 303 303 303 303 305 303 304
308 308 309 309 308 304 301 304 309 304 301 305 306 305 306 308 310 312 311 312 313 312 309 306 307 309 309 313 311 312 313 312 308 307 308 305 307 306 304 304 304 304 303 302 301 300 302 302 303 304 304 304 305 304
308 308 309 308 306 305 304 305 306 308 309 307 309 308 308 310 312 312 311 312 310 309 308 310 311 314 314 315 315 315 314 311 311 314 310 302 304 304 303 304 303 303 302 301 302 301 300 303 304 303 303 304 305 306
308 309 306 307 304 304 302 305 303 306 305 308 306 308 306 306 309 311 312 309 309 311 312 313 315 314 314 315 317 316 316 314 312 310 304 302 302 301 301 303 303 302 302 303 304 304 304 305 307 306 305 305 301 306
308 308 307 306 302 299 298 308 305 307 302 304 307 303 303 303 306 311 308 310 312 316 316 313 314 315 317 318 317 314 313 311 308 308 304 305 304 305 304 304 304 303 303 304 306 305 305 301 302 306 307 306 307 307
307 304 302 301 299 293 304 303 306 306 306 304 304 302 303 306 308 308 305 309 313 313 313 315 317 317 316 315 315 312 311 312 310 309 308 306 306 305 306 304 305 306 307 307 306 305 305 306 302 305 306 306 306 305
296 295 297 288 301 300 299 301 302 303 301 303 302 303 304 306 304 303 304 310 310 312 315 317 317 316 314 314 314 311 311 310 308 306 305 306 305 304 304 306 306 307 307 306 304 304 305 306 306 306 305 305 304 303
290 298 293 298 299 300 301 298 300 299 301 301 303 306 307 304 300 300 306 311 311 313 314 315 315 313 314 314 312 310 306 311 308 304 305 305 307 308 305 304 303 304 307 307 305 304 304 305 305 305 304 303 295 303
293 297 301 305 304 303 302 304 306 301 300 300 304 302 303 298 299 306 312 313 313 314 316 316 316 315 315 313 312 308 307 309 309 306 306 309 311 311 309 307 306 307 308 307 306 306 305 305 304 305 304 303 303 304
300 302 299 302 303 304 300 301 300 301 303 307 305 300 299 296 298 312 314 313 311 311 313 312 313 316 316 314 310 306 303 302 300 300 301 304 306 308 309 309 308 296 307 308 307 307 306 306 306 305 304 302 303 305
300 305 303 299 301 302 302 301 302 306 310 306 304 303 304 311 314 313 313 310 310 311 310 309 308 311 310 309 309 307 305 304 304 303 302 302 303 304 305 306 305 306 306 306 296 302 306 306 306 305 304 304 304 306
299 303 301 301 299 298 302 306 308 312 312 311 310 312 312 311 312 315 315 311 309 308 309 310 310 310 308 307 305 305 307 309 309 306 303 303 304 306 305 305 305 305 305 306 305 302 294 301 299 304 303 303 303 303
303 302 300 299 298 302 305 308 308 307 307 306 309 309 309 310 312 313 313 311 310 307 307 306 308 309 308 307 307 307 306 308 306 306 306 307 306 306 306 306 305 306 306 305 305 304 304 303 303 302 302 302 302 301
301 300 300 298 300 306 306 304 303 302 304 306 309 311 309 308 306 309 311 309 307 306 304 306 307 307 309 310 311 310 298 309 309 308 306 306 305 306 306 306 306 306 306 305 305 305 304 303 303 302 302 302 302 303
301 301 301 299 300 302 306 306 306 306 309 308 308 310 309 307 304 310 314 313 311 309 309 309 310 310 310 310 309 308 299 307 304 297 296 296 297 300 305 305 305 305 304 304 304 303 303 303 302 302 303 303 304 304

GFSWCAN_sfc_thetae_114.txt.gz
Theta_e
312 313 313 313 314 314 314 314 315 314 313 314 317 314 314 315 315 317 324 328 321 316 314 315 314 311 311 310 305 309 308 308 307 302 303 305 303 306 303 304 302 301 299 300 300 297 294 310 309 306 311 315 316 322
312 312 313 313 313 314 314 314 315 314 313 314 316 314 314 314 314 314 321 327 325 319 316 319 317 316 315 314 313 312 309 307 309 306 307 307 302 304 302 300 307 301 305 304 303 303 310 311 311 314 316 316 316 320
312 312 312 313 313 313 313 314 314 315 313 313 316 313 313 314 314 313 322 324 324 316 314 314 313 318 320 318 318 310 313 312 312 313 311 309 300 307 299 301 302 306 309 308 305 308 309 310 313 314 316 317 320 321
311 311 312 313 313 313 313 313 314 314 313 313 316 313 313 314 313 312 321 324 323 318 310 311 319 316 319 320 318 318 316 315 313 313 309 307 305 308 305 305 304 308 308 304 305 310 311 311 312 314 315 317 319 322
310 311 312 313 313 313 313 313 314 314 313 314 316 312 312 312 312 316 323 326 326 318 310 311 316 317 318 318 316 317 316 315 312 308 306 306 310 307 310 308 303 308 305 303 303 311 310 312 313 313 313 315 317 318
309 310 310 312 312 313 313 313 313 314 313 313 315 312 312 311 311 321 314 324 327 325 315 307 317 315 317 317 316 316 316 315 314 311 311 312 310 308 305 305 307 310 311 312 310 314 312 314 314 314 314 313 316 317
309 310 310 311 313 312 312 313 313 313 313 313 313 310 311 310 315 316 313 318 314 326 315 309 309 315 317 316 317 317 318 316 314 312 312 312 309 308 307 302 305 310 313 314 315 314 312 313 313 315 314 315 313 318
309 310 310 310 312 312 312 313 313 312 313 314 310 310 310 310 311 315 322 313 317 321 320 309 309 310 317 311 310 318 314 315 314 314 312 310 309 308 303 308 309 311 312 313 313 315 314 315 314 314 315 314 313 314
309 309 309 310 312 312 312 312 312 313 313 310 309 310 315 316 315 319 314 314 326 320 311 311 306 304 315 313 316 314 317 309 314 310 310 309 298 289 305 307 309 310 310 310 312 312 311 310 310 310 311 312 312 313
309 309 309 310 311 311 311 312 312 312 309 309 310 313 313 320 316 317 318 314 314 316 316 311 315 308 312 311 310 311 313 310 305 308 310 305 303 309 311 311 312 311 312 311 308 307 308 307 308 309 310 313 313 313
309 309 310 310 311 312 312 313 309 308 308 310 312 315 320 313 319 316 309 307 309 306 311 312 313 309 316 308 308 313 310 309 302 305 304 304 302 307 313 311 313 314 313 312 311 311 311 310 312 312 311 313 314 314
309 309 310 311 311 312 309 308 307 308 313 309 314 315 320 316 313 307 305 308 306 302 310 309 311 314 313 318 311 310 306 307 298 307 303 296 305 312 311 311 312 313 313 312 312 310 310 311 312 312 313 313 314 315
309 309 310 311 312 308 307 308 308 308 308 312 313 312 312 310 298 300 298 302 303 309 311 311 308 312 312 314 311 308 302 302 308 302 301 303 311 313 312 312 312 313 314 313 311 312 312 313 314 312 312 314 314 314
308 308 309 309 308 308 309 309 310 308 309 309 306 294 303 301 303 305 304 305 311 313 312 311 309 309 312 308 309 301 305 305 299 297 299 305 312 314 314 313 312 310 312 312 312 312 312 313 312 313 313 315 315 314
309 308 309 308 309 308 309 308 309 308 308 304 305 295 301 305 309 313 314 314 316 316 313 310 310 310 308 306 307 305 300 297 300 300 307 310 317 317 315 313 313 312 312 312 313 313 313 313 314 314 315 316 314 314
309 308 309 309 309 309 309 309 311 310 308 304 303 302 307 306 305 309 312 312 317 314 314 311 307 305 304 306 302 300 298 297 304 309 312 315 318 319 318 315 314 315 314 314 315 315 315 314 312 312 311 312 311 309
308 309 309 309 309 309 308 308 309 303 304 301 302 306 305 309 308 314 316 317 320 313 307 308 303 303 309 303 301 306 303 308 313 314 316 318 319 319 319 316 315 317 316 317 316 315 313 311 310 307 306 308 309 310
309 308 309 308 310 309 311 308 305 301 298 303 301 304 307 308 308 310 313 317 315 313 312 307 311 305 302 301 303 309 311 313 317 316 316 317 317 317 318 317 317 317 316 314 313 311 310 308 306 305 308 308 308 309
309 309 309 309 310 311 308 308 310 302 304 306 308 309 309 308 310 312 315 316 318 321 317 313 307 305 306 310 310 311 315 315 315 316 319 317 317 317 316 316 315 314 311 310 309 307 307 308 307 307 307 308 306 307
308 308 309 309 309 310 304 308 314 306 303 308 310 308 309 309 313 311 311 313 314 313 311 307 307 311 312 314 317 317 318 321 317 315 315 314 314 314 311 311 309 310 308 309 307 304 307 307 308 307 308 307 308 306
308 309 309 309 311 310 308 309 308 310 311 310 315 313 312 313 312 312 312 316 313 310 308 311 313 315 321 322 322 320 320 320 317 317 316 313 312 309 310 309 309 307 305 306 305 305 304 307 307 307 306 306 308 309
310 310 309 307 305 307 307 310 308 311 309 310 310 311 309 309 311 313 317 312 311 312 315 314 315 317 319 322 322 324 323 323 323 318 308 307 305 304 304 307 306 304 308 306 306 307 307 308 308 308 307 307 305 308
308 309 308 305 303 301 300 313 306 307 302 305 310 305 306 307 312 317 311 312 313 317 318 318 321 323 321 323 324 324 323 322 319 318 314 310 304 305 305 305 308 309 306 307 309 308 307 303 304 307 308 307 307 307
307 306 304 303 303 297 308 305 309 307 307 304 303 301 305 311 313 311 305 310 315 322 320 320 320 320 322 322 320 322 321 319 318 314 309 305 304 307 309 312 311 309 309 310 309 307 307 307 304 307 307 306 305 306
297 296 298 292 305 301 300 302 303 303 301 304 303 303 308 312 306 304 305 311 316 317 319 321 322 321 319 321 322 318 318 317 313 309 312 310 309 308 308 310 308 310 310 308 306 306 306 307 307 306 305 305 303 304
290 299 295 300 301 301 302 299 301 302 303 301 303 307 311 306 300 300 308 314 315 319 320 322 320 319 319 321 319 316 315 318 317 310 305 308 307 306 307 309 306 307 309 309 307 306 306 306 306 305 304 304 297 303
293 299 304 309 307 307 305 306 308 303 299 301 305 305 306 300 301 308 318 318 319 319 320 321 320 318 319 319 318 316 318 318 316 313 310 308 311 313 313 309 307 308 310 309 308 307 306 306 305 305 304 305 305 304
301 305 300 305 305 306 301 301 300 300 303 307 307 301 300 297 297 311 317 317 315 318 319 320 322 321 321 319 314 313 313 311 311 310 308 311 316 316 315 313 313 299 310 311 310 309 308 307 306 305 305 304 304 305
303 306 306 303 304 305 305 303 303 307 312 307 303 302 304 309 313 315 317 315 315 315 317 317 317 319 318 316 314 312 310 307 305 302 303 306 308 310 314 313 311 311 311 311 297 303 309 308 307 307 306 306 306 306
302 307 303 302 301 300 304 308 309 315 317 314 314 313 315 313 316 318 319 317 315 315 316 317 316 316 313 312 310 310 311 311 308 306 305 305 306 309 310 310 310 310 310 310 309 308 296 305 302 307 305 305 304 304
306 304 302 301 300 304 306 309 310 311 312 310 312 309 311 313 316 320 320 317 316 315 314 313 313 313 312 311 310 309 309 312 313 312 311 310 310 309 310 309 309 309 309 309 309 308 307 306 306 305 304 303 303 302
303 302 301 300 302 308 309 307 306 305 306 307 307 313 313 313 310 313 316 315 313 312 306 310 311 310 313 314 314 313 301 313 313 313 311 310 309 310 310 309 309 308 308 307 307 307 307 306 304 304 304 304 304 304
305 304 304 303 303 304 308 308 307 306 308 309 310 314 314 313 307 312 316 317 315 311 310 311 312 314 314 312 312 311 304 312 307 297 296 299 300 303 309 309 308 307 307 306 306 306 306 305 305 305 304 304 304 305

GFSWCAN_sfc_thetae_117.txt.gz
Theta_e
313 313 313 313 313 314 314 314 315 315 316 314 315 317 315 315 315 316 326 332 325 316 317 316 315 313 312 310 307 313 309 310 308 304 305 304 301 307 303 305 304 303 302 300 301 299 294 312 311 308 313 318 318 323
312 312 312 312 313 314 314 314 314 315 315 315 314 317 315 315 315 314 321 330 330 322 318 320 319 319 316 316 314 314 310 311 310 309 308 310 303 306 303 301 309 302 308 307 306 306 313 315 315 317 318 319 319 320
312 312 312 312 313 314 314 314 314 314 315 315 314 316 314 314 314 313 322 325 325 319 316 315 314 319 322 320 320 311 316 315 313 315 310 309 303 308 302 302 304 308 311 307 307 310 311 313 316 317 318 319 321 323
311 312 311 312 313 314 314 314 313 314 314 315 314 316 313 314 314 312 321 325 324 321 310 313 322 319 322 322 319 318 319 319 317 314 309 307 306 311 306 308 304 310 310 307 308 313 313 313 315 315 316 318 320 324
311 310 311 311 312 313 314 314 314 313 314 314 314 316 312 313 312 314 322 324 326 321 312 313 319 320 321 320 318 318 318 314 312 309 307 305 312 310 309 308 305 310 306 304 306 313 313 315 316 315 314 315 318 320
311 310 310 311 311 313 313 313 313 313 314 314 314 315 312 312 312 319 315 323 326 326 318 310 319 317 319 319 316 317 318 315 313 311 312 314 314 308 307 306 311 312 311 313 311 316 312 318 316 315 314 314 316 318
311 310 310 310 310 312 313 313 313 313 314 313 314 313 311 310 312 316 315 319 314 327 316 309 311 318 319 318 317 317 318 318 314 315 311 313 311 308 306 308 310 311 313 314 315 315 311 314 313 317 316 317 314 318
310 310 310 310 310 311 313 312 313 313 313 313 314 311 310 310 311 313 322 313 316 320 316 309 310 313 319 313 312 319 314 315 314 314 314 309 312 310 306 311 312 311 313 313 313 314 315 318 317 316 317 316 315 315
310 309 310 310 310 311 312 312 312 312 313 314 311 310 314 314 312 317 318 315 325 321 310 309 307 306 318 314 316 315 316 309 317 309 311 312 306 292 306 310 311 311 312 312 313 314 314 313 313 313 313 313 313 314
310 309 309 310 310 311 312 312 312 313 313 309 309 314 311 317 316 318 319 316 314 315 317 313 314 309 314 313 311 312 314 310 308 311 313 306 306 311 313 314 314 313 313 313 310 309 310 310 310 310 311 313 313 314
310 309 309 310 311 312 312 312 313 310 306 310 312 314 323 315 319 315 310 308 309 306 311 311 314 311 317 309 309 313 307 311 304 309 305 305 305 311 315 314 315 315 314 312 312 312 312 311 311 311 313 314 315 315
310 309 309 311 312 312 312 309 308 308 313 310 315 320 322 317 312 307 305 307 307 304 310 309 312 314 314 319 312 313 306 309 300 311 304 300 309 315 314 314 314 315 314 314 313 311 311 312 312 312 314 313 315 317
310 309 309 310 312 310 308 309 309 308 308 314 313 313 311 309 298 300 298 302 304 308 312 311 310 314 316 315 311 308 304 304 312 303 304 306 314 314 315 314 313 315 315 315 313 312 313 313 314 313 313 315 315 315
310 309 309 309 308 308 309 309 310 310 310 310 306 295 303 300 302 303 305 306 309 312 313 313 312 311 312 309 309 303 307 310 301 300 301 308 316 315 316 315 314 313 314 314 314 313 313 314 314 314 314 315 315 313
310 309 309 308 309 308 309 309 309 311 309 305 306 297 301 306 307 309 311 311 314 316 314 311 311 311 309 306 308 306 303 299 302 302 309 312 318 318 317 315 314 314 314 314 315 314 314 314 313 314 314 316 315 315
310 308 309 309 309 309 309 310 312 311 309 306 305 302 305 305 305 307 309 310 314 315 315 313 308 305 303 306 303 302 301 300 306 310 314 318 321 321 321 318 317 317 316 315 315 317 316 315 314 315 315 315 314 312
308 310 308 309 309 309 309 310 311 306 304 302 301 306 306 305 307 311 314 313 322 314 308 308 302 302 308 304 303 307 305 308 315 315 316 323 323 324 323 321 319 318 318 317 317 318 317 317 317 314 312 312 311 312
310 310 309 309 310 309 309 308 305 302 299 303 302 305 309 310 308 311 316 316 317 315 314 308 313 305 303 301 304 309 312 314 317 318 321 323 325 325 323 323 321 320 320 319 319 319 317 315 312 310 310 310 309 310
311 309 309 308 310 309 308 306 308 300 303 305 307 310 309 310 311 314 316 319 320 318 314 314 307 305 306 310 310 314 315 317 317 319 321 326 325 323 322 322 321 320 320 319 317 311 310 312 309 308 309 309 308 309
308 309 309 309 309 310 306 309 313 307 304 307 309 308 310 309 310 311 313 316 316 316 314 310 307 311 311 316 317 319 314 320 318 316 316 319 321 321 321 320 318 319 315 313 309 305 308 309 308 309 310 309 308 307
307 311 309 310 313 312 309 310 309 310 312 311 316 312 309 312 310 310 310 314 312 310 309 313 313 315 323 326 323 323 323 323 319 318 318 317 320 319 318 318 314 310 307 307 308 308 304 308 309 309 309 307 308 310
310 310 308 307 304 309 309 312 310 313 311 309 311 312 310 309 309 310 313 310 310 312 314 314 315 319 319 322 322 327 326 326 327 322 311 313 317 314 312 310 307 305 310 310 310 308 308 310 310 309 308 308 307 308
308 310 309 306 303 304 302 313 306 307 303 306 308 306 306 307 313 318 311 312 312 315 315 316 321 324 323 325 325 327 328 327 323 322 321 320 317 314 310 307 310 309 308 310 310 310 309 304 306 308 308 308 307 307
308 307 303 302 304 299 308 306 309 305 306 305 305 303 305 308 315 311 305 308 313 317 318 323 323 320 323 325 320 321 326 325 322 322 321 315 310 309 308 309 310 312 312 311 311 310 310 308 304 307 307 306 309 305
297 297 300 294 306 303 301 302 303 304 302 304 303 303 306 313 307 304 304 307 314 319 319 320 321 322 321 321 321 322 326 322 319 315 314 313 311 308 308 311 312 315 313 310 309 308 308 309 308 307 307 306 306 306
291 299 297 301 301 301 300 299 301 302 303 303 305 312 313 306 300 300 308 315 318 320 323 324 323 322 320 322 321 319 319 321 319 315 316 315 311 309 308 307 309 309 313 311 309 307 307 308 307 307 306 304 298 304
293 299 305 310 305 304 304 307 309 306 301 301 306 304 304 298 300 308 319 322 321 322 322 323 322 320 320 319 320 323 321 320 320 318 318 316 314 314 311 308 309 311 311 311 310 308 307 307 306 306 306 307 307 305
301 305 300 305 305 306 303 303 303 300 303 308 308 302 301 300 303 312 318 322 319 322 322 322 323 323 321 319 319 319 320 320 320 318 316 316 315 314 314 314 314 300 311 312 311 310 309 308 307 307 306 305 306 306
303 308 308 304 304 304 304 303 304 308 310 309 304 302 304 310 312 315 320 320 319 319 321 320 321 322 321 319 318 317 317 316 313 310 309 308 310 311 315 313 312 312 311 311 295 303 310 309 309 309 307 307 307 307
303 307 303 303 301 300 305 308 307 312 314 313 311 313 316 315 317 320 318 319 317 317 319 319 319 318 315 314 312 313 315 315 314 312 309 309 310 313 313 313 312 312 311 311 311 310 297 306 304 309 307 306 306 305
307 306 304 305 304 307 309 311 312 311 311 311 312 310 311 315 317 321 322 322 320 318 317 316 316 317 313 312 312 311 310 314 314 314 313 312 312 311 312 312 312 312 312 311 311 310 309 307 308 307 306 305 305 303
303 303 303 302 304 309 310 307 307 308 309 309 310 311 313 315 312 317 319 318 317 315 307 314 313 312 316 315 315 315 301 315 315 314 312 313 312 312 311 311 311 311 310 310 310 309 309 308 306 306 305 305 305 305
303 305 307 305 305 305 309 308 308 307 308 307 308 311 314 314 308 314 320 320 316 314 312 311 310 312 314 314 314 312 308 314 304 296 297 298 299 303 311 311 311 310 308 308 308 308 307 307 306 306 305 306 305 305

GFSWCAN_sfc_thetae_123.txt.gz
Theta_e
314 314 313 313 313 314 314 314 314 316 316 316 316 317 316 317 317 312 311 315 321 316 317 320 318 314 311 308 303 310 307 308 304 299 300 297 298 299 298 302 300 296 295 296 298 294 293 312 311 306 310 314 318 316
314 313 313 312 313 313 313 313 314 315 315 315 316 316 316 316 316 314 309 320 320 320 317 322 322 318 315 314 307 309 308 308 310 303 303 304 300 300 300 295 305 294 300 298 301 301 310 312 311 313 316 314 316 320
313 313 312 312 313 313 313 312 313 315 315 315 315 316 316 316 317 313 309 313 319 318 316 315 315 319 316 314 314 307 311 315 313 312 306 305 302 303 296 298 302 305 307 299 305 308 309 311 313 313 314 314 316 322
313 312 312 312 312 312 312 312 313 315 315 315 315 315 316 316 316 312 309 313 314 318 311 311 320 316 319 316 318 315 312 315 315 312 306 301 300 307 300 303 301 305 306 301 304 309 310 312 312 313 314 316 316 320
312 311 311 312 312 311 312 312 312 313 315 313 314 315 315 316 314 311 310 312 316 315 311 312 320 319 317 317 318 318 313 311 310 304 303 301 307 307 305 303 300 305 302 300 302 310 309 309 311 313 312 312 314 318
311 311 311 312 311 311 311 312 312 313 314 314 314 314 315 315 312 310 312 319 321 322 315 309 320 321 317 317 316 313 314 312 310 308 306 310 312 307 299 300 306 307 312 313 310 316 316 315 315 313 312 313 312 316
310 310 311 311 311 311 311 311 312 313 314 314 315 314 314 314 308 307 310 316 310 311 317 309 310 316 318 316 313 313 313 311 311 309 306 307 307 306 300 300 308 310 313 315 315 313 310 314 310 312 314 316 314 314
309 310 311 311 311 311 311 312 312 313 313 314 314 314 313 312 308 306 311 311 313 319 315 307 307 311 317 310 308 315 311 312 311 308 310 307 310 310 300 305 307 312 312 312 311 312 310 312 315 314 314 313 312 310
309 310 311 311 310 311 312 312 312 313 313 313 314 314 310 308 309 313 321 316 323 319 309 306 303 304 317 311 311 313 312 306 314 307 307 309 299 289 303 307 309 312 309 310 311 310 309 313 312 311 313 311 308 308
309 310 311 311 310 310 312 312 313 313 313 314 311 307 306 314 319 321 319 316 315 313 316 310 313 308 314 311 308 310 312 306 304 309 312 307 304 309 312 312 313 313 310 312 307 306 307 309 310 310 309 309 309 310
309 309 311 311 310 310 312 312 312 313 310 307 307 313 324 319 320 315 308 306 307 303 306 309 311 310 317 308 307 313 306 307 301 306 305 303 302 309 315 313 314 316 313 311 312 313 312 309 309 308 308 312 311 311
309 310 311 310 310 311 312 312 312 309 310 308 306 315 323 316 310 304 303 306 304 299 306 300 304 312 314 316 309 310 306 307 301 311 304 298 307 315 314 312 314 314 313 312 313 312 312 312 310 310 311 312 311 314
308 310 311 310 310 309 308 308 309 309 308 311 311 310 306 305 293 297 295 300 301 308 306 307 302 308 313 313 310 309 304 301 310 304 301 305 314 316 314 313 315 315 314 313 312 313 312 312 313 311 311 313 313 311
308 310 310 310 309 308 309 309 310 310 308 309 305 290 299 296 299 301 302 303 308 307 307 309 307 311 311 308 307 304 306 307 301 299 300 308 313 316 314 316 313 312 313 313 311 311 311 312 311 312 314 313 311 310
308 310 311 310 309 309 309 309 310 312 309 304 303 293 298 303 306 308 309 309 309 312 309 312 311 312 309 306 308 306 302 299 302 300 305 313 315 315 315 313 312 312 312 313 311 311 311 312 312 311 311 311 311 311
308 309 310 310 309 309 308 308 311 310 309 305 303 300 305 304 304 306 308 308 313 314 316 312 308 303 304 305 303 302 300 299 303 310 314 316 315 316 315 314 314 314 314 313 313 313 312 312 311 311 313 312 312 311
309 309 310 310 310 309 308 308 309 303 302 301 300 306 305 305 305 309 309 310 316 310 306 307 302 301 307 303 302 305 302 305 314 314 316 317 317 318 319 318 318 317 316 314 316 315 313 313 314 314 310 312 310 309
308 311 310 310 310 309 309 307 304 302 298 301 299 303 307 308 307 308 313 312 311 309 309 307 309 303 302 301 302 307 311 317 317 317 318 322 323 324 323 321 322 321 320 318 317 317 316 314 311 312 312 310 308 307
309 310 310 311 309 307 303 303 305 297 300 303 304 306 307 308 310 312 313 316 315 317 312 312 306 304 305 311 311 311 314 316 317 319 319 320 322 323 324 324 325 323 322 321 318 314 312 310 309 310 309 308 306 306
309 309 309 310 309 306 303 303 307 302 302 306 308 306 307 307 308 310 311 310 309 309 306 303 305 310 309 310 316 315 313 316 317 314 313 313 316 318 319 321 321 319 313 310 309 306 307 307 308 309 309 308 307 305
307 310 309 309 311 307 306 306 305 307 309 306 309 309 308 309 306 307 308 312 307 307 304 308 309 309 311 316 316 317 318 319 321 318 317 314 318 316 316 320 320 311 309 308 307 306 306 306 307 308 308 307 307 306
310 311 308 308 304 306 307 311 308 310 309 308 306 308 305 306 307 308 312 308 307 311 311 311 309 310 310 315 315 316 321 320 320 321 310 315 316 315 316 318 313 309 309 306 306 306 307 308 310 311 307 306 304 305
308 308 308 304 300 298 298 311 305 308 303 305 310 305 307 307 309 313 309 312 312 318 318 320 315 316 315 320 321 320 318 317 312 316 321 319 320 318 316 315 313 307 306 307 308 308 308 306 308 307 307 305 305 304
308 305 302 300 300 296 307 305 307 305 306 304 303 302 306 308 313 307 303 308 311 315 314 314 321 321 321 321 319 314 315 315 315 320 321 318 316 315 315 313 312 309 310 310 310 310 311 310 305 306 306 306 305 304
296 296 298 291 304 301 300 301 302 304 301 304 302 303 306 312 304 301 302 310 314 314 314 318 319 317 313 317 316 322 323 321 321 317 319 318 314 314 313 312 312 311 312 311 310 310 309 308 307 306 305 305 304 305
290 298 295 301 301 301 302 299 301 302 303 302 304 310 312 307 302 301 309 315 317 316 314 315 315 313 315 315 315 314 315 322 320 318 319 320 317 313 310 308 308 309 313 313 312 308 308 306 305 305 305 303 300 304
291 297 303 307 306 305 303 306 307 305 302 302 306 305 305 300 300 309 319 319 320 318 319 316 319 318 316 313 316 318 318 321 320 317 319 318 317 316 313 309 309 312 315 314 313 310 307 306 306 305 305 306 305 305
301 302 299 305 304 305 302 303 301 301 304 307 308 303 301 300 302 315 317 322 323 321 321 321 321 317 318 319 317 317 318 319 317 316 315 315 316 315 314 314 316 303 311 314 312 310 308 307 307 307 306 305 305 306
301 305 305 302 304 305 304 303 303 307 310 308 304 304 306 311 313 313 322 321 321 322 316 316 319 317 318 320 319 319 317 315 313 311 309 309 309 311 315 312 311 312 308 304 297 305 310 308 308 307 307 307 307 307
301 305 302 302 302 302 306 309 309 310 311 312 314 311 312 316 317 318 318 320 321 317 316 315 318 315 313 314 314 315 316 316 315 313 310 309 310 313 313 313 314 313 310 308 307 304 299 306 304 307 306 307 307 306
306 304 302 303 302 306 309 311 313 313 312 312 312 309 311 317 318 319 319 323 318 317 316 314 315 313 313 312 312 312 311 315 316 316 314 315 312 315 315 315 314 313 311 309 308 307 306 306 307 307 307 307 306 303
303 303 302 301 303 309 310 309 308 309 311 310 309 312 315 311 307 313 319 319 314 311 308 311 312 311 313 313 315 314 306 312 308 309 311 312 314 315 316 314 314 313 312 310 309 308 308 308 308 307 307 309 308 306
304 305 305 304 303 304 308 309 306 306 308 309 310 311 313 309 306 312 320 321 316 313 313 312 312 311 312 314 312 309 305 305 297 294 295 294 295 301 307 310 311 310 309 308 308 309 309 308 307 308 307 307 307 306

GFSWCAN_sfc_thetae_129.txt.gz
Theta_e
314 314 314 314 314 313 313 313 313 313 312 312 316 316 316 316 316 310 302 304 301 303 308 313 314 309 308 299 298 300 301 300 296 293 293 292 292 294 291 292 292 290 289 288 290 287 288 307 306 300 303 310 313 313
315 314 314 314 313 313 312 313 312 312 312 312 313 316 315 315 316 311 299 305 306 299 305 314 318 319 315 312 302 298 300 299 300 295 295 295 295 294 292 288 297 290 295 293 294 293 303 307 306 310 311 312 313 314
315 314 313 313 313 312 312 312 312 312 312 312 312 314 314 314 316 314 303 300 303 304 307 306 311 312 313 312 306 301 300 304 300 300 297 296 293 295 291 292 295 297 300 295 297 301 305 309 311 311 310 312 317 321
314 314 312 312 312 312 312 312 311 312 312 312 313 314 314 314 314 314 306 301 299 299 301 305 315 313 316 309 308 306 305 305 303 299 295 292 291 295 291 295 295 300 301 298 298 302 305 307 307 309 317 322 322 323
312 312 312 312 311 311 311 312 311 311 312 313 313 313 313 314 313 311 309 305 303 299 301 305 310 313 312 308 307 307 305 301 299 296 294 293 293 297 294 295 296 301 299 297 296 302 302 302 306 312 315 320 320 320
311 311 311 311 310 311 311 311 311 311 312 312 312 313 314 314 313 302 298 304 305 305 304 301 309 311 307 307 306 305 304 301 300 298 296 296 301 296 292 289 296 298 302 303 304 306 306 306 308 311 314 320 320 320
310 311 311 310 310 310 311 311 311 311 313 313 313 313 313 312 308 301 298 304 305 303 306 304 302 310 309 305 305 304 302 301 300 297 297 299 297 296 292 290 300 302 305 305 308 307 304 305 305 308 313 319 320 320
310 310 310 309 310 311 311 311 311 311 313 313 313 313 312 311 309 302 304 310 306 300 307 299 299 302 307 302 301 304 300 300 299 297 298 298 300 294 290 295 298 304 306 307 307 306 306 305 307 307 307 313 316 317
309 309 309 309 310 310 311 311 311 312 313 313 313 313 307 305 296 300 315 312 305 306 299 297 295 297 308 304 304 304 302 297 300 296 296 300 290 289 296 297 301 305 306 306 305 306 306 305 306 306 306 305 307 311
308 308 309 309 309 311 311 310 311 312 312 313 308 300 296 301 311 316 308 304 305 304 303 300 302 297 306 304 303 300 299 297 295 298 301 296 294 298 299 302 304 305 306 304 300 300 303 303 304 305 305 305 304 306
308 308 308 308 309 310 310 310 312 312 311 303 298 301 307 313 307 304 298 297 298 296 298 302 303 300 307 301 302 304 299 300 294 298 298 293 294 299 304 302 302 304 305 304 305 305 307 307 305 305 304 307 310 311
307 308 308 308 309 310 310 310 312 311 305 304 301 304 303 304 299 296 296 297 296 294 296 296 302 304 305 307 303 303 299 299 293 300 296 289 297 301 303 304 304 304 305 305 305 304 306 308 306 305 305 308 309 309
307 307 308 308 310 310 309 309 309 309 307 303 303 303 303 298 289 292 290 292 292 297 297 294 297 302 305 305 302 302 298 296 301 296 294 296 298 301 305 306 304 305 306 306 306 306 306 307 306 305 305 308 308 307
306 307 307 308 309 310 308 308 310 309 304 303 303 290 293 293 293 294 295 294 299 301 302 296 294 300 302 300 302 297 300 301 295 291 294 298 301 302 305 304 305 303 304 305 305 305 305 306 306 306 309 307 307 307
306 306 307 308 309 310 309 309 309 308 304 301 302 293 293 296 297 299 300 300 303 305 302 300 300 300 298 299 300 299 297 295 296 294 297 300 301 305 304 304 303 302 302 303 303 304 304 305 305 304 304 305 307 306
306 306 305 308 309 310 308 307 307 308 305 303 302 296 296 295 296 297 298 299 304 305 306 306 301 297 298 298 297 296 296 294 298 298 300 300 302 305 304 304 303 303 303 301 302 304 304 304 304 303 303 304 305 306
306 304 310 309 309 309 308 304 306 302 300 299 297 299 297 296 296 297 301 303 307 305 301 302 297 297 302 297 297 300 297 299 301 301 304 305 305 307 305 304 303 303 302 300 300 302 304 303 302 303 301 302 302 302
304 309 310 309 309 307 305 305 303 300 295 298 294 295 298 299 297 299 305 308 307 304 303 301 305 298 297 296 298 302 305 308 308 306 307 305 306 305 306 304 304 303 303 302 302 302 302 302 303 304 303 301 301 300
308 308 310 309 308 305 301 302 303 296 298 297 296 297 297 298 300 301 305 309 310 307 305 302 301 298 301 304 305 306 307 307 308 307 307 308 307 307 306 305 305 305 304 303 303 303 304 305 306 304 303 304 303 301
307 309 309 310 309 303 301 301 305 297 293 297 300 300 298 297 299 299 304 306 306 304 299 299 300 303 305 307 308 308 308 309 309 306 305 305 307 310 310 311 310 309 305 304 304 302 303 302 302 303 304 305 304 302
307 308 309 308 306 303 299 301 300 300 298 302 305 304 303 301 299 298 298 304 300 299 299 303 303 305 310 309 311 312 311 310 309 309 310 311 312 313 312 309 305 304 304 302 302 301 302 303 304 306 306 305 307 307
308 309 305 306 302 303 302 301 299 304 301 301 301 305 301 299 299 300 304 301 301 303 304 304 306 307 306 308 310 311 313 312 311 312 308 308 311 309 307 306 303 302 301 301 302 302 303 304 305 305 306 306 306 307
308 308 305 303 299 296 294 300 299 300 296 299 302 300 298 300 304 306 301 301 302 304 307 307 309 308 308 308 308 309 311 313 309 309 310 310 310 310 308 305 304 303 301 300 303 304 303 301 303 306 306 307 307 306
307 303 300 298 297 293 300 299 301 299 299 298 297 297 299 302 305 301 299 299 302 305 306 307 307 305 306 306 306 306 309 310 307 306 308 309 308 307 309 309 306 306 307 306 305 305 305 305 303 306 306 306 304 300
295 294 296 289 299 297 295 296 297 297 296 297 297 297 299 304 297 296 296 297 304 303 304 307 306 306 306 305 307 309 312 312 310 308 308 309 305 304 303 303 303 304 307 305 304 305 305 307 307 306 304 299 298 297
289 296 291 297 298 296 297 297 299 297 296 296 298 300 303 300 298 296 299 305 305 304 303 303 305 305 304 303 305 307 310 312 312 311 308 308 308 309 306 304 303 302 307 307 304 304 304 303 302 302 302 300 296 299
290 294 298 300 300 300 298 300 299 297 296 296 298 298 297 295 296 300 304 306 308 309 310 310 310 308 307 304 307 309 311 316 314 312 313 313 312 312 310 306 305 307 306 306 306 306 303 302 300 300 300 299 300 301
297 297 293 298 296 298 295 296 296 295 297 301 299 298 299 300 299 303 305 308 310 310 311 313 313 314 308 306 308 311 314 312 309 310 309 307 306 306 306 306 305 299 306 307 307 304 302 302 300 300 300 299 298 300
295 298 297 294 296 297 297 297 297 299 303 302 298 299 303 305 307 304 305 310 311 313 312 311 310 310 310 310 311 311 308 310 308 304 303 301 302 303 304 305 305 306 306 306 299 302 304 302 301 301 301 300 301 300
294 297 294 295 296 296 300 305 305 307 308 308 310 308 307 310 311 311 313 313 312 312 312 312 312 311 308 307 305 305 307 308 307 305 301 301 302 305 305 305 303 301 301 303 303 301 296 299 297 300 299 299 298 298
297 296 295 295 295 299 304 308 309 308 309 307 309 307 306 309 309 309 315 314 314 312 312 312 312 308 308 306 305 304 304 306 306 307 306 305 305 306 306 306 303 300 300 300 300 299 299 298 299 299 299 300 301 299
294 294 293 293 294 300 303 303 304 305 305 306 305 306 305 305 302 309 313 313 311 308 306 307 308 305 307 309 307 307 301 307 308 310 307 306 305 306 306 305 302 301 300 300 299 299 300 300 300 299 299 300 300 300
294 294 296 295 295 296 298 301 302 301 302 302 304 305 304 304 302 306 314 315 312 310 309 307 306 304 304 301 302 301 297 297 295 294 297 300 300 302 305 304 304 303 301 301 301 301 300 300 300 299 299 300 300 299

GFSWCAN_sfc_thetae_132.txt.gz
Theta_e
315 315 314 314 314 314 313 313 313 313 312 312 312 314 316 315 316 311 304 303 299 299 302 310 312 306 306 299 296 298 300 299 295 292 291 291 290 293 290 291 291 290 288 288 290 287 288 307 306 300 304 313 314 316
315 315 315 314 313 313 313 313 313 312 312 312 312 312 315 315 315 312 299 303 304 296 298 309 313 315 315 311 303 298 300 298 298 294 293 293 293 292 290 288 295 290 293 292 294 293 302 306 306 310 311 313 312 319
315 315 314 314 312 313 312 312 312 312 312 312 312 313 314 314 314 314 308 301 300 299 302 304 307 311 313 316 309 300 300 302 299 299 296 295 293 294 290 291 293 296 298 295 296 299 303 309 311 312 311 315 317 322
313 313 314 313 312 312 312 312 312 312 311 311 312 313 313 314 314 314 307 301 299 295 297 303 313 310 315 307 307 307 305 302 300 298 294 292 290 295 291 294 294 297 299 296 297 301 305 307 311 311 320 321 322 322
312 312 312 312 312 311 311 311 312 311 311 312 312 313 313 314 313 312 311 310 304 298 297 300 308 309 312 309 307 305 305 302 299 297 293 293 291 295 292 294 293 300 298 296 296 303 303 305 309 315 319 319 320 320
311 311 311 311 311 310 310 311 311 311 311 311 313 313 313 313 313 305 297 304 308 301 299 299 306 308 306 305 305 304 303 301 299 296 294 293 296 296 291 289 296 301 302 302 302 305 305 307 310 315 319 320 320 320
310 310 311 310 310 310 310 311 311 311 311 312 313 313 313 313 310 302 297 301 305 302 301 301 301 307 306 302 303 303 301 300 299 296 296 298 296 295 291 288 299 300 301 303 307 306 304 307 307 312 319 321 319 321
309 310 310 309 309 310 310 311 311 311 311 313 313 313 312 312 310 305 307 310 307 300 304 299 298 300 304 300 299 301 299 298 298 297 297 296 297 293 289 296 297 302 306 306 307 306 306 306 307 310 316 318 317 317
309 309 309 309 309 309 310 311 310 311 312 312 312 313 309 306 299 300 312 313 305 303 298 296 293 295 306 301 302 302 300 296 298 296 295 298 290 288 297 298 298 301 306 307 306 305 305 306 305 307 313 315 314 314
308 308 308 308 307 307 310 310 310 311 312 312 307 300 296 300 309 312 306 301 299 302 302 297 301 297 304 302 299 301 300 298 295 298 299 295 294 297 300 300 301 303 306 304 303 302 302 303 304 305 308 309 311 313
308 308 308 308 307 308 310 310 310 312 310 301 298 300 307 310 307 303 297 296 297 296 297 298 300 298 304 300 299 302 299 297 292 296 297 293 293 298 302 301 302 304 306 306 309 309 307 308 305 304 304 306 307 308
307 307 308 307 308 309 310 309 309 311 302 303 301 303 302 303 299 297 295 295 295 294 295 296 299 300 301 304 302 304 300 299 293 298 296 289 297 301 302 303 303 303 306 306 306 306 307 308 307 306 305 307 309 311
307 307 307 308 308 309 310 308 309 309 307 302 301 302 302 297 289 292 290 291 291 296 296 294 296 299 303 303 300 302 299 297 300 295 293 296 299 300 301 304 304 303 305 307 305 306 308 308 307 306 306 309 310 309
306 306 307 307 308 309 309 308 309 309 303 300 301 289 296 294 292 293 294 293 297 300 301 294 295 298 299 298 298 295 299 300 294 290 294 298 301 302 303 306 303 303 304 305 305 305 306 307 306 307 309 309 308 307
305 305 306 306 307 308 309 308 309 308 303 300 301 291 295 296 296 297 298 298 300 302 301 297 297 298 297 296 297 296 295 293 295 294 297 300 302 302 304 304 303 303 303 303 304 304 305 305 305 305 307 307 308 308
305 305 304 307 308 309 309 307 306 307 304 302 302 298 297 295 295 296 297 297 301 302 303 302 298 296 295 295 295 294 294 293 297 301 302 300 301 302 305 304 303 303 302 302 302 303 304 304 304 304 305 306 308 308
305 303 309 309 309 309 308 303 305 302 300 299 297 297 296 295 295 297 297 299 303 300 296 300 297 296 300 295 294 298 296 299 303 306 304 303 304 304 305 304 302 302 301 300 301 303 304 303 303 304 303 304 305 306
303 308 310 309 308 307 304 304 302 300 295 298 296 295 296 297 295 296 299 305 302 301 302 300 303 298 296 294 296 301 304 307 309 309 307 306 306 306 306 304 302 303 301 301 302 302 302 302 303 304 305 303 302 302
306 307 310 309 308 304 300 301 303 296 297 298 297 295 295 296 298 301 300 303 305 305 304 303 300 298 299 303 304 305 306 306 307 307 307 307 307 306 304 303 302 302 301 300 301 302 304 304 306 305 304 304 304 302
307 308 310 310 309 303 301 300 305 298 292 294 295 297 299 299 299 298 299 300 304 304 302 299 298 302 305 307 308 306 307 309 308 305 305 307 308 306 305 304 303 303 303 303 302 300 301 302 303 303 304 305 303 302
306 308 310 308 305 302 299 299 300 300 300 297 304 303 303 303 298 295 296 302 302 298 298 300 302 304 306 307 309 310 309 309 308 309 308 307 309 311 308 307 307 307 306 304 303 303 302 304 304 304 304 305 306 306
307 309 305 306 302 303 301 299 297 303 301 301 300 304 302 301 300 300 301 300 299 302 302 303 305 306 306 308 309 310 312 312 312 311 306 308 309 307 307 308 309 307 306 306 305 305 305 304 306 307 307 307 306 307
308 308 304 303 298 296 294 299 296 299 295 299 301 299 299 300 303 305 299 301 302 304 306 307 307 308 308 309 311 311 312 311 311 311 310 311 311 312 312 309 308 306 304 304 305 304 303 301 303 306 306 307 307 306
307 303 300 298 297 293 301 298 301 297 297 296 296 297 298 301 304 300 298 299 302 303 303 304 307 306 305 305 306 307 309 311 309 308 309 309 308 309 311 310 307 308 307 304 305 304 305 305 302 305 306 306 306 305
294 293 296 289 299 296 295 295 297 298 296 297 296 296 298 302 298 296 296 297 303 303 304 306 306 306 305 305 305 307 310 310 308 307 308 309 308 305 305 305 306 307 308 306 306 306 305 306 306 307 307 306 305 304
290 296 291 296 295 295 296 296 297 298 296 296 297 299 303 300 297 295 299 304 306 305 305 304 305 305 305 305 306 306 308 311 311 309 311 310 309 307 304 303 302 302 307 309 307 306 305 306 307 306 305 302 297 302
290 293 297 297 299 300 298 300 299 296 296 296 298 299 298 295 296 300 304 307 308 308 309 310 309 308 306 305 306 308 311 313 312 311 312 310 311 312 309 307 305 307 309 310 310 308 306 306 305 305 305 304 303 302
296 297 292 296 297 299 296 295 295 295 296 300 299 297 298 299 299 305 306 309 309 310 310 311 310 310 307 307 309 311 310 308 308 308 307 306 307 309 309 308 309 300 310 310 308 308 307 306 305 304 303 303 303 303
294 297 297 294 295 295 296 296 296 298 301 301 298 299 302 306 307 306 306 308 311 311 309 309 310 309 309 310 309 308 308 309 309 306 306 304 304 305 306 305 305 308 308 307 299 303 305 305 304 303 303 303 303 303
293 297 294 294 294 294 299 302 304 305 308 308 309 308 308 309 312 314 313 313 309 311 312 311 311 309 308 307 305 306 308 308 309 306 304 303 305 305 306 306 307 307 307 307 305 300 296 301 299 303 301 301 301 301
296 294 294 294 294 298 305 309 309 309 308 307 308 306 306 309 310 311 314 313 313 312 313 311 311 308 309 306 305 305 306 307 308 308 307 306 306 307 307 306 306 305 305 306 304 303 302 302 302 302 302 301 301 300
292 293 293 292 294 301 303 303 304 305 305 305 304 307 304 305 303 308 312 313 311 308 306 305 307 308 309 309 308 307 301 308 309 308 308 307 308 309 309 307 303 303 302 302 303 303 304 303 303 303 303 303 303 302
292 293 294 294 295 297 299 301 301 301 303 303 302 303 304 304 302 306 314 313 312 309 307 305 305 305 308 307 305 301 299 301 299 294 299 299 300 303 306 305 303 303 303 303 303 303 303 303 303 303 303 303 303 304

GFSWCAN_sfc_thetae_135.txt.gz
Theta_e
317 316 315 315 314 314 314 313 313 313 313 312 312 313 314 315 315 314 311 310 305 303 307 311 315 312 311 307 305 306 306 306 304 302 300 302 301 302 300 301 301 300 299 300 301 298 294 312 311 306 313 319 321 324
317 316 315 315 314 313 313 313 312 312 312 312 312 312 313 314 314 313 308 309 309 304 305 308 310 312 312 315 312 307 308 308 308 304 303 304 301 302 302 298 305 300 304 304 303 304 310 313 314 317 317 320 319 323
315 315 315 315 314 312 312 313 312 312 312 312 312 312 313 314 314 313 310 311 308 305 305 307 305 312 317 315 319 309 309 311 308 310 307 307 305 305 301 302 303 306 306 305 305 307 309 313 317 318 318 322 324 327
315 315 314 314 313 312 312 312 312 312 312 311 312 312 313 313 314 314 309 309 306 302 300 307 317 316 321 319 319 318 313 310 309 309 307 306 304 307 305 305 305 307 307 306 306 310 311 314 316 318 323 325 327 328
312 312 313 312 312 312 311 311 311 312 311 311 311 312 313 313 313 313 311 311 311 303 300 303 309 314 317 318 315 317 314 312 309 306 305 305 304 304 304 305 304 309 309 305 303 314 314 315 318 322 325 324 327 325
311 312 311 311 311 311 311 310 311 311 311 311 312 313 313 313 313 309 304 308 311 309 300 301 314 314 314 314 314 311 313 310 309 309 306 304 305 307 302 302 309 312 314 315 312 316 314 317 318 325 324 325 327 326
311 311 311 311 310 310 310 310 311 311 311 311 312 313 313 312 311 305 304 305 308 309 303 304 307 313 312 310 310 310 310 309 311 307 306 308 307 307 305 304 310 310 314 313 314 315 312 315 316 324 326 326 325 327
309 309 310 310 309 309 310 310 311 311 311 311 313 313 312 312 311 307 312 309 309 305 305 304 304 307 312 308 307 310 308 309 307 306 306 306 305 305 303 309 312 311 312 312 314 317 317 318 320 324 327 326 322 322
309 309 309 309 309 309 309 310 310 310 311 312 312 312 310 308 304 306 311 313 311 305 302 303 301 302 312 309 310 310 310 305 306 305 306 307 303 295 309 313 311 311 314 315 315 315 314 316 318 323 324 324 320 321
309 309 308 308 307 307 308 310 310 310 312 312 310 305 300 304 309 313 310 304 303 304 306 303 308 303 310 310 308 309 308 306 303 306 306 304 305 311 315 314 317 315 315 316 312 310 312 314 317 321 321 323 323 322
308 308 308 308 308 308 308 310 309 310 311 308 303 303 310 310 312 308 303 300 301 301 305 306 305 303 312 309 308 310 307 305 301 305 303 303 302 309 316 314 315 316 316 317 318 318 317 317 317 319 320 321 322 324
307 307 307 308 308 308 309 309 309 310 308 306 305 307 308 310 306 302 301 301 300 297 302 302 305 306 309 314 311 311 306 306 300 307 302 301 308 316 314 314 314 315 315 316 318 317 317 317 317 317 317 317 317 320
307 307 307 307 308 308 309 309 308 309 308 307 304 303 306 303 292 296 294 298 297 302 303 302 303 307 311 313 310 310 303 302 307 302 301 305 313 313 313 313 314 314 315 317 316 318 317 317 318 317 316 318 319 319
306 306 306 307 307 308 309 309 308 309 306 302 302 291 298 297 298 300 300 300 304 305 308 305 302 306 308 307 308 302 306 307 298 296 299 308 316 318 315 314 313 312 313 315 315 315 316 317 316 317 318 319 319 320
305 305 305 306 307 307 308 309 309 309 305 300 303 292 298 303 303 303 304 304 307 310 310 305 305 306 306 304 305 303 300 297 299 298 305 311 315 314 314 314 314 313 313 314 316 314 315 316 316 316 318 319 321 321
305 305 304 306 307 308 308 308 309 308 305 303 302 299 302 300 301 303 304 304 309 311 311 309 305 302 301 304 300 299 297 296 300 307 310 313 313 314 314 314 315 315 315 315 315 316 316 316 316 317 317 318 319 319
304 303 308 309 308 309 308 307 306 302 300 299 299 304 302 302 302 305 306 308 311 309 305 306 299 299 306 301 299 303 301 306 311 312 314 315 316 316 316 314 314 313 313 315 315 316 316 317 317 315 314 317 318 319
303 307 309 309 308 307 306 306 303 301 296 299 297 301 302 304 302 303 305 309 310 308 308 303 307 300 299 296 300 308 310 313 314 314 315 315 317 319 316 314 313 313 314 314 315 315 314 314 314 314 317 317 317 317
306 306 308 309 308 305 300 301 303 297 298 300 301 301 300 303 305 306 307 311 313 313 311 306 301 298 300 307 307 310 313 312 312 314 316 318 317 316 315 314 313 312 312 313 313 312 313 315 315 315 315 315 314 314
306 307 307 310 309 304 300 301 305 299 297 299 301 301 302 303 305 305 305 306 308 308 305 302 302 305 309 310 313 311 313 315 315 313 316 319 318 314 313 313 311 313 311 312 312 307 312 312 313 314 313 313 313 312
305 308 310 309 306 304 301 301 300 300 301 298 303 302 303 305 304 302 302 306 303 303 302 308 307 310 313 315 317 313 314 315 317 316 316 315 317 317 314 313 313 312 312 311 310 310 308 312 314 313 312 312 314 314
307 309 305 306 302 303 301 304 300 304 302 303 304 305 303 303 302 301 304 303 302 304 306 308 309 311 311 312 313 316 317 317 315 316 308 312 317 317 314 313 313 312 314 315 314 314 313 314 314 314 313 313 310 311
308 307 304 302 298 296 296 304 300 302 299 301 305 302 302 303 305 306 301 304 305 309 310 311 312 313 310 312 315 316 316 316 311 312 316 319 319 321 319 318 320 318 316 315 316 316 315 307 308 313 313 312 312 311
306 303 300 298 297 293 301 298 301 300 301 300 300 299 303 306 306 304 301 306 308 311 310 311 310 309 311 311 310 311 312 313 314 315 318 316 317 319 320 321 319 318 319 315 314 313 313 313 307 312 312 311 311 310
294 294 296 289 299 297 295 297 299 300 299 301 300 301 303 307 302 301 302 304 311 311 311 311 313 312 311 313 314 314 316 315 313 312 316 316 316 315 316 317 316 316 315 313 311 311 312 311 310 310 310 310 309 309
289 296 292 296 297 296 297 296 298 299 299 299 301 304 307 304 300 299 305 310 311 312 313 313 312 313 314 314 313 315 315 317 316 314 317 318 318 317 316 313 313 313 315 316 314 312 310 310 309 309 309 308 300 308
290 294 298 303 301 300 298 301 302 300 299 299 302 302 303 297 298 305 312 313 313 316 316 316 316 314 314 315 315 317 319 320 319 319 320 319 319 319 317 315 313 316 314 315 314 313 311 310 310 309 309 311 311 310
296 298 295 299 300 300 297 299 298 299 301 305 304 300 299 299 301 309 311 314 315 316 318 318 317 316 315 316 317 318 317 317 315 315 315 315 316 317 317 317 317 301 315 316 314 313 312 311 311 311 311 310 309 310
296 301 300 297 299 300 300 299 300 304 306 306 302 302 304 309 310 310 313 315 318 318 314 312 315 317 317 315 317 317 316 316 314 312 310 309 307 309 313 313 312 314 314 313 300 308 313 313 313 311 311 311 311 311
297 301 298 297 297 297 302 304 306 309 310 311 309 308 308 311 315 316 315 315 316 314 315 316 316 317 314 311 309 312 314 313 314 311 308 309 311 312 312 313 313 314 314 313 311 306 297 306 303 309 308 308 309 309
301 299 297 298 297 301 307 308 308 310 310 307 309 307 306 309 313 314 316 317 316 315 316 313 313 316 314 313 313 312 311 314 314 314 315 314 314 314 314 315 314 315 314 313 312 311 310 308 309 309 308 308 308 306
298 298 297 296 298 303 308 305 305 305 307 307 307 310 309 307 307 311 314 315 312 310 306 308 310 313 316 317 316 316 301 315 314 315 315 314 314 315 315 314 315 315 314 314 312 311 311 310 309 309 308 308 308 308
298 298 299 298 298 299 302 303 303 304 306 306 308 309 309 307 305 312 316 313 310 308 307 306 307 314 314 310 309 309 306 315 306 299 300 301 302 307 314 315 312 311 311 312 313 312 311 311 311 311 311 311 310 310

GFSWCAN_sfc_thetae_138.txt.gz
Theta_e
316 317 317 316 315 315 315 314 314 313 313 313 313 313 313 314 315 315 318 320 313 309 311 313 315 316 316 314 308 312 308 309 306 305 304 305 303 306 303 305 303 302 301 301 303 299 296 315 314 309 317 323 324 328
316 316 316 315 315 315 313 313 313 313 313 312 312 312 313 313 314 314 314 317 317 309 310 314 315 316 318 319 316 314 312 312 311 308 310 310 306 308 305 299 311 302 306 305 304 304 315 318 317 321 322 323 325 326
316 316 315 315 314 313 312 312 313 312 313 312 312 312 312 314 314 313 312 316 315 309 310 311 310 316 317 315 318 313 315 317 316 319 315 312 306 309 302 304 306 311 313 307 308 311 313 316 319 323 324 323 325 328
316 315 315 314 314 313 312 312 312 312 312 312 312 312 312 313 313 314 311 317 314 311 303 308 321 319 322 319 316 316 319 320 320 318 313 310 307 313 306 309 308 311 313 310 309 313 315 317 321 322 323 325 328 330
314 313 313 313 313 312 312 312 311 311 312 311 311 311 313 313 313 314 313 313 314 309 304 307 312 314 316 320 320 319 317 316 316 312 310 308 313 311 312 310 306 314 310 307 305 312 313 318 321 324 323 324 327 327
311 312 312 312 312 311 311 311 311 311 312 311 311 312 313 313 313 312 308 314 313 312 308 301 314 316 319 319 319 319 319 317 316 313 311 315 314 311 304 304 311 313 316 316 314 318 321 321 323 323 320 323 325 324
311 311 311 311 311 311 310 310 310 311 311 311 311 312 313 312 313 309 309 311 311 312 306 304 308 316 317 318 318 318 320 317 315 313 311 311 313 310 308 306 311 313 316 318 321 322 319 321 321 321 319 318 325 326
310 309 309 310 310 310 309 310 310 311 311 311 312 313 312 312 311 308 316 310 313 311 309 306 308 309 316 311 311 317 314 314 314 313 314 311 313 312 306 312 314 315 315 318 320 322 319 322 325 325 324 323 323 322
309 309 309 309 309 309 309 309 310 311 311 311 313 313 312 309 306 313 313 312 315 311 306 309 304 304 317 314 315 313 315 308 315 309 310 313 311 301 311 313 313 316 316 317 320 321 320 321 323 324 325 323 321 321
309 309 309 309 309 307 307 308 310 310 310 312 312 309 306 311 314 315 312 308 307 309 309 305 313 307 314 313 309 310 312 309 305 309 313 308 308 316 317 317 319 318 320 320 317 317 318 319 321 324 324 323 321 321
309 309 308 308 309 308 308 309 310 310 311 311 308 309 313 312 314 310 307 303 305 303 307 307 308 306 316 311 308 315 307 309 303 307 307 305 305 312 318 319 321 322 321 320 320 322 322 321 322 323 322 323 322 323
309 308 308 308 308 308 308 309 309 311 312 309 309 309 313 311 309 305 303 305 303 301 308 307 309 308 309 317 313 314 308 311 301 313 306 303 309 317 318 319 321 322 320 319 321 321 323 323 323 324 324 322 320 323
307 307 307 307 308 308 308 309 309 309 309 314 307 304 307 308 297 297 296 300 301 305 308 307 306 309 311 313 312 311 304 304 314 306 304 307 317 321 321 321 321 323 322 320 321 323 324 323 324 324 323 322 322 322
307 306 306 306 307 307 308 309 309 309 310 306 304 293 301 299 301 303 303 307 309 311 313 313 308 308 312 305 307 302 308 309 301 299 302 310 318 320 323 322 320 320 320 320 321 323 323 324 323 324 323 323 322 321
306 306 305 305 306 307 308 309 309 311 308 303 305 294 300 306 309 310 311 309 311 315 315 311 309 309 307 304 305 304 301 298 301 301 307 313 320 321 321 320 320 321 320 320 322 322 323 324 323 323 324 325 324 325
305 304 306 306 306 307 308 309 310 309 306 304 304 302 306 304 304 307 308 308 314 313 317 315 308 304 301 303 300 298 297 297 303 309 314 319 322 323 324 323 322 323 322 321 322 323 324 324 323 323 324 324 325 326
304 306 308 309 307 308 308 310 309 304 302 302 302 307 305 306 306 310 311 312 316 312 305 308 301 301 310 301 299 303 301 305 309 314 319 322 322 323 325 325 322 323 322 322 323 324 324 325 324 323 322 324 325 326
305 310 308 309 310 308 307 308 305 303 299 303 301 303 307 308 307 308 310 311 314 312 310 305 309 302 300 298 301 307 310 313 319 319 321 321 323 325 325 324 323 323 323 323 323 324 324 323 323 322 325 325 324 324
308 307 307 309 308 306 302 303 305 300 301 303 305 306 307 307 309 310 310 312 314 317 314 311 304 302 303 307 307 310 312 313 313 315 318 322 324 324 323 323 323 322 322 322 323 321 321 323 320 320 322 323 320 321
305 306 307 309 309 307 300 301 307 302 299 303 306 305 306 307 309 309 309 309 309 309 306 304 305 307 308 313 315 313 314 315 315 313 314 316 320 323 321 320 320 321 321 322 322 314 320 320 320 321 321 320 318 319
306 308 309 309 306 305 305 302 300 302 304 299 303 305 303 306 305 307 308 311 307 305 304 307 308 311 316 316 321 319 314 313 320 316 314 315 321 322 320 319 320 319 318 318 317 316 314 318 319 319 319 318 319 320
307 309 307 307 303 303 303 307 304 307 305 305 304 306 304 302 303 305 309 305 303 308 310 310 311 313 313 315 316 320 317 319 319 317 308 314 321 321 318 318 318 317 317 317 317 316 317 318 319 319 319 319 315 320
307 308 304 304 300 299 298 309 302 304 300 301 306 304 304 305 307 310 301 307 309 314 314 314 315 317 315 317 318 317 318 317 316 318 318 319 322 324 322 319 319 318 317 318 319 318 318 311 314 318 319 318 318 317
306 304 299 298 299 294 304 300 304 303 304 303 303 301 305 310 309 307 304 311 315 318 317 317 315 313 314 315 311 312 312 314 314 315 316 317 318 321 324 323 323 324 323 323 323 323 323 320 311 317 317 317 317 316
294 295 298 291 299 298 297 298 300 301 301 303 302 303 307 312 307 305 306 312 316 318 318 319 318 315 313 313 315 317 319 314 312 311 316 319 318 318 320 324 324 325 324 321 320 319 320 319 321 320 319 318 317 316
290 298 294 296 297 297 298 296 298 300 303 302 304 309 312 308 302 301 309 314 315 316 317 317 317 319 318 317 317 319 321 320 318 314 316 318 318 317 317 317 318 320 323 323 321 319 319 318 318 317 317 313 302 313
290 295 301 306 302 301 299 303 305 302 301 300 306 305 306 300 300 308 316 318 315 317 320 320 318 318 317 321 322 324 322 321 320 320 321 321 322 322 322 320 320 324 323 323 322 321 318 317 316 315 314 313 313 313
298 300 296 301 302 303 298 300 300 300 303 310 308 301 301 302 304 312 315 317 319 320 321 322 323 322 322 322 322 322 321 322 322 321 321 322 323 323 323 323 323 303 320 321 320 319 318 316 315 313 313 312 313 311
298 302 302 299 301 302 301 302 303 307 311 310 304 304 307 314 315 313 315 317 322 322 319 317 318 323 322 323 322 322 321 321 318 316 316 315 317 318 321 320 319 319 317 316 301 310 314 313 315 315 315 314 314 313
299 304 300 300 299 300 305 308 309 312 315 314 314 313 311 313 316 318 317 316 320 317 319 320 319 320 317 317 317 318 320 320 319 318 315 313 313 314 318 319 319 319 319 317 316 314 301 312 308 314 312 313 313 312
305 303 300 301 300 305 308 312 312 311 310 313 313 307 305 309 314 316 320 318 317 316 316 316 317 317 315 314 314 313 312 316 318 319 319 318 318 319 320 321 320 320 318 316 315 314 314 312 312 312 312 311 311 308
302 301 301 298 301 306 309 306 305 304 306 307 307 310 310 309 306 310 314 315 310 311 309 314 318 316 318 317 316 316 305 316 317 318 319 319 320 319 318 318 317 316 315 314 314 313 313 311 310 309 309 309 310 310
301 302 302 301 301 301 304 304 304 305 307 307 309 312 311 311 306 313 313 314 310 309 313 312 312 318 316 318 319 317 312 318 307 296 297 300 301 307 315 317 317 317 316 314 313 313 312 311 310 311 311 311 310 311

GFSWCAN_sfc_thetae_141.txt.gz
Theta_e
316 316 317 317 317 316 316 316 315 315 314 314 314 313 313 314 315 315 322 327 317 313 315 317 316 313 318 319 313 313 312 312 310 307 306 305 306 307 305 306 305 304 302 302 303 300 297 316 315 308 318 322 324 325
315 316 316 317 317 315 315 315 314 314 313 313 313 313 313 313 314 314 317 323 321 314 314 318 318 319 317 319 319 316 314 313 313 309 309 309 305 308 308 301 311 303 307 304 308 305 315 317 316 319 322 322 324 327
315 316 316 316 315 315 314 313 313 313 313 313 313 312 312 313 314 313 316 319 318 313 313 314 313 320 320 318 324 315 317 319 316 319 314 311 308 311 303 304 307 311 314 308 307 311 313 315 318 320 321 322 325 327
316 316 315 315 314 314 313 312 313 313 313 313 312 312 312 313 313 313 313 320 317 313 306 311 321 317 321 319 317 319 319 322 321 321 313 310 308 313 307 309 309 311 316 312 309 313 315 316 318 321 323 324 325 327
315 315 314 314 314 313 312 312 312 312 312 312 311 311 312 313 313 314 316 317 318 313 307 310 315 318 320 321 316 318 317 318 317 314 311 308 312 312 314 311 308 312 311 307 306 314 315 317 321 325 325 324 327 326
312 312 313 312 312 312 312 312 312 311 312 312 311 311 312 314 312 313 309 317 317 315 309 305 316 315 318 317 317 318 316 316 317 315 312 313 317 314 308 306 311 314 316 317 313 318 316 321 324 326 324 326 326 327
310 311 311 311 311 312 311 311 311 311 312 311 311 312 313 313 314 311 309 312 314 316 310 306 309 314 318 318 316 315 318 317 317 315 314 312 314 313 309 307 313 315 316 317 318 319 317 320 320 324 324 323 325 323
310 309 309 310 311 310 310 310 310 311 311 311 311 312 313 312 311 310 317 311 316 312 313 305 308 312 317 312 311 316 314 317 317 315 315 312 316 315 309 314 315 317 318 316 317 321 320 321 323 322 321 319 316 318
310 309 309 310 310 309 309 309 310 310 311 311 312 313 313 310 308 312 315 315 317 312 308 308 307 304 318 314 313 313 315 310 316 311 312 314 315 307 313 315 315 316 316 316 317 320 320 319 322 323 320 319 316 317
310 310 309 309 309 309 307 307 309 310 310 312 313 309 306 312 314 315 313 310 309 312 311 307 313 308 315 312 311 310 311 308 305 310 313 310 309 318 320 321 321 320 318 318 316 317 318 317 319 322 323 324 323 321
310 310 309 309 309 308 308 308 309 310 310 312 310 309 315 314 314 312 306 305 307 305 309 308 309 308 317 311 308 311 307 308 303 307 308 307 306 313 319 320 323 323 321 319 319 322 322 321 320 322 323 324 322 321
310 309 308 308 308 308 308 308 310 311 314 309 310 315 316 312 309 304 303 305 305 303 310 309 309 310 314 318 315 312 307 308 300 311 306 305 310 320 319 319 321 323 320 319 319 318 320 322 321 323 323 324 323 323
309 308 308 308 308 308 308 309 310 309 309 315 308 306 309 308 297 299 297 301 303 307 311 311 308 310 312 314 312 310 304 305 312 305 302 307 319 320 321 322 320 323 323 320 320 320 322 323 324 323 323 325 323 324
308 308 307 307 308 308 308 309 309 310 310 306 305 296 302 301 302 303 303 304 310 314 312 311 309 308 309 306 309 303 307 309 302 299 301 311 317 321 323 324 320 321 323 322 321 320 322 324 323 325 325 326 323 322
307 307 307 306 307 307 308 309 309 312 309 304 306 296 302 307 307 308 309 310 312 314 312 312 310 309 308 305 306 305 302 300 301 302 308 316 321 323 324 323 322 320 322 322 321 321 322 324 324 324 325 325 324 323
307 305 307 308 307 307 308 309 311 312 307 307 306 303 306 304 303 307 307 307 311 312 313 315 309 304 303 304 302 300 299 298 303 310 314 320 324 325 326 327 326 324 324 324 323 323 323 325 324 324 324 324 324 324
304 306 309 308 307 308 308 309 309 304 303 304 304 308 306 307 305 309 310 310 316 310 307 307 303 302 307 301 300 304 302 306 309 314 317 325 324 325 327 326 327 326 326 325 325 325 325 326 326 324 324 325 324 325
304 309 308 309 310 308 309 309 308 306 301 305 302 305 306 309 307 307 309 312 313 314 311 306 309 305 301 299 303 307 311 313 317 318 319 325 326 326 326 326 327 327 327 327 326 326 326 326 327 323 325 325 325 325
305 310 307 309 310 308 304 307 309 301 303 305 306 307 307 306 308 310 310 313 314 318 317 313 306 303 303 308 308 310 312 313 313 316 318 324 326 325 326 327 327 327 327 327 326 324 325 328 324 324 324 324 322 323
305 305 306 308 309 305 302 304 310 304 301 306 307 306 306 306 308 309 309 310 309 310 306 306 306 308 308 311 316 314 314 317 315 314 315 317 319 323 324 324 323 326 325 326 326 316 324 324 323 322 322 322 321 321
305 308 308 308 307 306 304 303 302 303 305 306 307 307 307 308 308 306 305 309 306 305 305 310 311 313 319 317 320 318 318 318 315 314 315 314 319 320 321 323 325 323 322 322 322 320 317 322 320 320 321 321 322 322
308 310 307 307 303 305 303 308 305 308 307 306 306 308 305 302 304 307 312 308 307 309 311 311 312 313 315 318 317 321 320 319 321 319 308 312 316 319 319 322 321 320 320 321 321 319 320 319 320 321 321 320 316 320
307 308 306 304 300 299 298 310 304 305 301 305 306 303 305 307 310 311 304 309 310 314 314 313 317 320 317 320 321 321 322 320 318 320 318 317 323 326 324 323 322 319 318 319 320 319 318 313 316 319 320 319 319 320
306 304 299 299 300 296 305 302 306 304 305 303 302 301 306 311 313 307 304 311 313 318 319 320 318 316 317 319 316 316 318 318 317 317 320 319 316 321 323 321 321 320 320 319 319 319 320 319 313 319 319 319 319 318
295 295 297 290 301 299 298 300 301 302 301 303 302 303 309 313 307 305 307 312 318 318 321 324 320 317 315 315 317 318 322 320 314 312 315 318 318 319 320 323 322 323 323 320 320 321 322 322 321 320 320 319 319 318
290 299 295 299 300 298 299 297 299 300 303 302 304 310 314 310 303 302 310 316 317 319 319 322 323 322 320 320 320 326 324 320 316 316 319 320 319 321 320 322 323 324 327 325 323 322 322 322 322 322 319 316 306 319
291 297 302 306 303 303 302 305 306 303 301 301 308 307 308 301 302 309 317 320 320 323 325 325 325 323 322 325 323 326 325 323 321 320 320 320 321 321 320 317 316 320 325 323 323 322 321 322 321 321 319 318 317 317
301 301 298 302 302 305 299 301 302 300 304 311 309 303 302 302 304 315 318 321 322 323 326 323 324 324 322 325 325 324 324 325 325 323 322 323 323 323 324 326 326 304 325 326 324 324 322 321 320 319 317 315 315 316
300 304 303 300 301 303 303 303 303 308 313 310 306 305 308 316 319 317 319 320 325 325 321 320 323 323 322 324 323 323 323 322 320 318 317 318 320 321 325 324 323 324 324 323 302 313 319 318 317 315 314 313 314 313
301 305 300 301 300 300 304 308 310 315 316 316 315 314 316 316 316 320 320 318 322 319 322 322 325 322 321 319 317 319 322 321 320 317 315 317 319 321 323 323 323 322 321 320 319 316 302 311 307 314 314 314 312 311
303 303 301 301 300 304 307 312 313 312 311 311 316 313 311 313 317 320 319 322 318 317 320 319 318 316 316 314 314 314 314 319 321 322 320 321 321 323 323 323 323 321 319 318 316 315 316 315 315 313 313 311 311 310
303 301 300 299 301 308 311 308 306 306 309 310 308 310 311 309 307 310 314 316 313 314 310 315 315 313 316 316 316 317 306 319 320 320 321 320 321 322 322 321 320 320 318 317 315 315 314 314 312 312 312 312 312 311
303 304 304 302 303 303 307 304 304 305 308 307 309 312 312 311 307 313 313 314 313 317 317 315 316 318 320 317 317 316 313 318 306 295 297 296 295 303 317 317 317 316 315 314 313 313 312 311 311 311 311 311 312 311

GFSWCAN_sfc_thetae_144.txt.gz
Theta_e
315 315 316 316 317 318 318 317 316 316 316 315 315 314 314 314 315 314 317 326 318 312 313 316 317 314 314 316 311 317 313 312 310 306 305 306 305 307 305 307 305 304 303 302 303 300 297 317 314 309 317 320 320 322
316 315 316 316 317 317 317 316 316 315 315 314 314 314 314 314 314 314 314 325 323 313 312 317 317 319 318 318 314 316 315 315 312 308 309 309 304 309 308 302 311 302 307 303 305 305 317 318 315 318 317 318 316 322
315 315 315 316 316 316 316 315 314 314 314 314 314 314 313 313 314 313 315 319 317 313 313 314 313 318 320 320 321 314 319 319 318 320 313 311 307 312 304 306 306 312 315 307 309 311 311 315 316 317 318 318 319 323
315 316 316 316 315 315 313 313 313 313 313 313 313 313 313 313 314 313 314 319 317 314 307 310 320 318 323 321 318 319 322 321 320 321 313 312 308 314 309 310 309 311 313 311 312 314 313 316 318 321 320 322 323 324
315 315 315 315 314 313 313 312 312 313 312 313 313 312 312 313 314 314 317 318 319 312 307 309 313 316 320 321 318 316 315 316 316 314 313 310 312 312 314 313 308 313 311 307 306 316 315 316 320 322 322 323 326 325
312 313 313 313 313 313 312 312 312 312 312 312 312 312 312 313 313 314 313 319 321 318 308 302 313 313 317 318 318 316 314 315 315 315 313 315 318 313 308 307 315 315 315 316 314 317 317 319 320 324 325 326 328 328
311 311 311 311 312 312 312 311 311 311 311 312 312 312 312 313 313 311 310 314 313 317 309 305 307 313 316 317 314 315 316 314 314 314 314 315 314 315 311 309 314 315 316 317 318 318 316 318 317 323 326 324 325 324
310 309 310 310 311 311 310 310 310 311 311 312 311 312 313 313 312 311 317 311 315 313 312 304 306 313 319 312 311 315 312 314 316 313 315 313 313 314 308 316 317 316 317 317 318 317 317 320 321 323 322 321 320 317
310 309 309 310 310 309 309 310 310 311 311 311 311 313 313 310 308 314 317 315 317 312 306 307 303 304 317 312 314 312 313 306 314 312 313 314 315 309 313 316 318 317 316 316 317 316 318 318 320 323 321 317 317 315
310 310 309 309 309 309 308 308 308 310 310 311 312 308 306 314 316 316 313 309 309 311 311 307 312 308 315 312 309 310 312 308 306 310 317 311 310 319 325 324 325 321 320 319 315 314 316 316 319 322 321 321 323 318
309 310 309 309 309 309 308 308 309 310 309 311 309 310 316 315 313 311 307 306 307 305 309 308 308 307 316 311 309 314 307 308 303 307 308 307 307 316 324 325 328 328 326 322 320 320 321 320 319 324 324 326 326 323
310 310 309 309 309 309 308 308 309 310 314 309 309 314 316 311 307 303 304 306 304 303 309 308 308 310 314 317 310 313 307 309 301 311 306 304 311 324 321 321 323 328 323 321 320 319 321 322 322 322 324 324 324 324
310 309 308 308 308 309 308 308 309 310 310 315 311 307 308 308 297 299 298 301 302 307 311 311 309 311 312 314 312 310 303 304 313 306 304 307 319 322 328 326 323 324 323 321 320 320 319 320 324 323 326 328 324 326
310 309 308 308 308 308 308 308 309 310 309 306 304 294 302 300 302 304 304 306 310 310 310 310 309 308 310 307 310 303 308 308 302 300 302 310 320 322 318 319 320 320 321 321 319 320 320 324 326 328 329 329 327 327
308 308 307 307 307 308 308 308 309 311 308 304 305 296 301 306 308 310 310 310 313 314 313 313 312 310 307 304 306 305 303 300 302 302 308 317 319 317 314 317 322 320 321 321 322 321 322 323 326 328 329 329 328 328
308 306 307 309 309 307 308 309 311 311 308 306 305 302 306 304 305 307 308 309 313 313 313 312 308 305 304 305 302 300 299 298 305 312 316 321 322 320 322 326 326 327 324 323 323 324 325 327 327 329 330 328 327 328
305 307 308 308 308 308 307 306 310 305 304 304 303 307 306 305 305 309 311 310 315 312 307 307 303 302 307 302 301 305 302 306 313 315 321 323 326 327 330 327 325 327 329 328 328 330 328 331 330 328 328 329 325 328
304 309 309 309 308 308 308 305 307 306 301 304 302 304 307 308 307 308 311 313 310 308 311 306 310 304 301 300 301 307 311 315 316 318 321 322 326 329 326 327 327 328 329 330 332 331 331 329 329 326 330 329 328 327
304 306 308 309 310 308 303 307 309 301 303 305 306 307 307 308 310 311 311 313 313 320 316 312 306 304 304 310 310 312 314 314 315 315 318 322 324 326 326 326 326 327 328 330 332 325 326 330 326 326 325 326 322 324
305 305 305 307 309 304 303 307 312 305 302 305 307 306 306 306 308 310 310 311 310 309 307 305 306 308 310 313 315 315 313 316 316 314 315 318 320 322 325 325 321 327 326 330 328 317 326 326 326 327 326 325 323 323
304 307 306 308 306 305 304 305 306 307 307 304 308 307 306 309 306 306 308 311 308 306 303 308 309 313 319 317 317 317 319 319 316 315 314 314 318 319 320 321 325 322 321 323 323 323 317 325 327 325 324 324 324 325
310 309 307 307 303 304 303 308 306 311 307 306 307 308 306 305 305 308 311 307 306 308 310 310 313 314 317 318 319 322 324 324 321 318 309 312 313 314 317 319 319 319 321 322 321 322 323 325 325 324 322 323 319 323
306 308 306 304 299 298 298 309 303 305 301 304 307 303 304 306 310 314 307 309 310 313 313 313 317 324 318 319 321 321 323 321 318 317 318 318 317 317 318 320 318 320 320 322 323 323 323 317 318 320 322 322 322 322
306 303 299 298 298 296 304 302 305 303 304 302 302 302 305 310 314 307 305 310 319 320 318 318 317 313 313 322 316 316 320 320 318 319 323 321 316 316 322 323 321 324 323 321 320 321 321 320 314 319 320 319 318 319
295 295 296 290 302 299 298 299 301 301 300 303 302 303 307 313 307 306 307 312 317 317 318 317 322 320 314 314 316 317 325 320 319 317 316 318 319 318 316 318 321 324 323 319 315 318 320 320 319 318 318 318 318 318
290 298 295 299 300 298 300 298 299 301 302 302 305 310 313 308 304 303 309 315 318 320 321 320 321 321 319 318 315 320 324 325 318 315 317 320 317 316 313 316 323 319 324 323 323 320 319 319 319 318 317 316 308 318
291 297 302 307 305 304 302 304 305 303 302 301 306 306 307 301 301 309 318 322 321 324 326 326 323 322 320 320 321 324 325 326 322 321 324 324 323 320 319 318 318 320 325 323 323 323 322 322 322 321 321 322 321 320
300 302 298 302 301 305 301 302 301 301 304 310 309 303 302 304 306 315 318 321 321 323 323 323 323 321 322 321 323 321 322 323 323 320 320 320 322 324 328 327 322 306 320 320 322 323 323 323 322 322 320 319 319 319
300 304 303 301 303 304 303 303 302 309 314 311 306 306 308 315 319 318 319 320 326 325 324 322 322 324 323 323 323 322 321 321 318 315 315 318 322 320 325 324 322 321 321 323 302 315 322 320 319 316 315 314 315 316
302 305 301 301 301 299 305 308 309 312 313 312 314 314 316 318 317 321 323 320 322 321 322 321 326 320 317 317 317 318 320 321 319 319 319 317 318 320 323 323 323 324 324 322 318 315 304 312 309 315 314 313 312 313
305 304 301 301 301 305 308 312 312 311 312 311 312 313 312 316 320 318 319 321 319 318 318 317 318 317 316 314 316 315 315 320 321 320 320 319 323 323 322 322 322 322 322 320 318 316 312 313 313 314 314 313 312 309
303 302 301 299 302 308 309 310 309 308 309 308 310 314 314 312 310 315 316 318 318 318 310 314 313 314 316 317 318 318 307 317 319 320 322 321 321 320 319 319 321 321 319 318 317 317 317 316 315 314 313 312 311 312
303 303 303 302 302 303 310 309 305 305 308 307 309 312 313 309 307 313 319 316 314 315 315 312 315 318 319 317 317 316 312 315 303 295 296 295 294 302 319 321 321 320 318 316 315 314 314 313 312 313 312 313 312 311